Time,TemperatureF,DewpointF,PressureIn,WindDirection,WindDirectionDegrees,WindSpeedMPH,WindSpeedGustMPH,Humidity,HourlyPrecipIn,Conditions,Clouds,dailyrainin,SoftwareType,DateUTC
2013-08-24 00:01:00,53.3,39.8,29.70,ESE,103,0.0,32.0,60,0.00,,---,0.00,VWS V12.07,2013-08-24 07:01:00,
2013-08-24 00:02:00,53.3,39.8,29.70,ESE,103,1.0,32.0,60,0.00,,---,0.00,VWS V12.07,2013-08-24 07:02:00,
2013-08-24 00:04:00,53.2,39.7,29.70,ESE,103,0.0,32.0,60,0.00,,---,0.00,VWS V12.07,2013-08-24 07:04:00,
2013-08-24 00:06:00,53.1,39.6,29.70,ESE,103,0.0,32.0,60,0.00,,---,0.00,VWS V12.07,2013-08-24 07:06:00,
2013-08-24 00:07:00,53.1,39.6,29.70,ESE,103,0.0,32.0,60,0.00,,---,0.00,VWS V12.07,2013-08-24 07:07:00,
2013-08-24 00:09:00,53.1,40.0,29.70,ESE,103,0.0,32.0,61,0.00,,---,0.00,VWS V12.07,2013-08-24 07:09:00,
2013-08-24 00:11:00,53.1,40.8,29.70,ESE,103,0.0,32.0,63,0.00,,---,0.00,VWS V12.07,2013-08-24 07:11:00,
2013-08-24 00:12:00,53.1,40.0,29.70,ESE,103,0.0,32.0,61,0.00,,---,0.00,VWS V12.07,2013-08-24 07:12:00,
2013-08-24 00:14:00,53.1,40.4,29.69,ESE,103,0.0,32.0,62,0.00,,---,0.00,VWS V12.07,2013-08-24 07:14:00,
2013-08-24 00:15:00,53.1,40.4,29.69,ESE,103,0.0,32.0,62,0.00,,---,0.00,VWS V12.07,2013-08-24 07:15:00,
2013-08-24 00:17:00,53.2,40.5,29.69,ESE,103,0.0,32.0,62,0.00,,---,0.00,VWS V12.07,2013-08-24 07:17:00,
2013-08-24 00:18:00,53.2,40.1,29.69,ESE,103,0.0,32.0,61,0.00,,---,0.00,VWS V12.07,2013-08-24 07:18:00,
2013-08-24 00:20:00,53.2,40.1,29.69,ESE,103,0.0,32.0,61,0.00,,---,0.00,VWS V12.07,2013-08-24 07:20:00,
2013-08-24 00:22:00,53.3,40.2,29.69,ESE,103,0.0,32.0,61,0.00,,---,0.00,VWS V12.07,2013-08-24 07:22:00,
2013-08-24 00:23:00,53.3,40.2,29.69,ESE,103,0.0,32.0,61,0.00,,---,0.00,VWS V12.07,2013-08-24 07:23:00,
2013-08-24 00:26:00,53.3,40.2,29.69,ESE,103,0.0,32.0,61,0.00,,---,0.00,VWS V12.07,2013-08-24 07:26:00,
2013-08-24 00:27:00,53.3,40.2,29.69,ESE,103,0.0,32.0,61,0.00,,---,0.00,VWS V12.07,2013-08-24 07:27:00,
2013-08-24 00:28:00,53.2,40.1,29.69,ESE,103,0.0,32.0,61,0.00,,---,0.00,VWS V12.07,2013-08-24 07:28:00,
2013-08-24 00:31:00,53.1,39.6,29.70,ESE,103,0.0,32.0,60,0.00,,---,0.00,VWS V12.07,2013-08-24 07:31:00,
2013-08-24 00:32:00,53.1,39.6,29.70,ESE,103,0.0,32.0,60,0.00,,---,0.00,VWS V12.07,2013-08-24 07:32:00,
2013-08-24 00:33:00,53.1,39.6,29.70,ESE,103,0.0,32.0,60,0.00,,---,0.00,VWS V12.07,2013-08-24 07:33:00,
2013-08-24 00:34:00,53.1,40.0,29.70,ESE,103,0.0,32.0,61,0.00,,---,0.00,VWS V12.07,2013-08-24 07:34:00,
2013-08-24 00:36:00,52.9,39.8,29.70,ESE,103,0.0,32.0,61,0.00,,---,0.00,VWS V12.07,2013-08-24 07:36:00,
2013-08-24 00:37:00,52.9,39.8,29.70,ESE,103,0.0,32.0,61,0.00,,---,0.00,VWS V12.07,2013-08-24 07:37:00,
2013-08-24 00:38:00,52.9,39.8,29.70,ESE,103,0.0,32.0,61,0.00,,---,0.00,VWS V12.07,2013-08-24 07:38:00,
2013-08-24 00:39:00,52.9,39.8,29.70,ESE,103,0.0,32.0,61,0.00,,---,0.00,VWS V12.07,2013-08-24 07:39:00,
2013-08-24 00:42:00,52.8,39.7,29.70,ESE,103,0.0,32.0,61,0.00,,---,0.00,VWS V12.07,2013-08-24 07:42:00,
2013-08-24 00:43:00,52.8,40.2,29.70,ESE,103,0.0,32.0,62,0.00,,---,0.00,VWS V12.07,2013-08-24 07:43:00,
2013-08-24 00:44:00,52.8,40.2,29.70,ESE,103,0.0,32.0,62,0.00,,---,0.00,VWS V12.07,2013-08-24 07:44:00,
2013-08-24 00:47:00,52.8,40.2,29.70,ESE,103,0.0,32.0,62,0.00,,---,0.00,VWS V12.07,2013-08-24 07:47:00,
2013-08-24 00:48:00,52.8,40.2,29.70,ESE,103,0.0,32.0,62,0.00,,---,0.00,VWS V12.07,2013-08-24 07:48:00,
2013-08-24 00:49:00,52.8,40.2,29.70,ESE,103,0.0,32.0,62,0.00,,---,0.00,VWS V12.07,2013-08-24 07:49:00,
2013-08-24 00:52:00,52.8,40.2,29.70,ESE,103,0.0,32.0,62,0.00,,---,0.00,VWS V12.07,2013-08-24 07:52:00,
2013-08-24 00:53:00,52.8,40.2,29.70,ESE,103,0.0,32.0,62,0.00,,---,0.00,VWS V12.07,2013-08-24 07:53:00,
2013-08-24 00:54:00,52.8,39.7,29.70,ESE,103,0.0,32.0,61,0.00,,---,0.00,VWS V12.07,2013-08-24 07:54:00,
2013-08-24 00:57:00,52.8,39.7,29.70,ESE,103,0.0,32.0,61,0.00,,---,0.00,VWS V12.07,2013-08-24 07:57:00,
2013-08-24 00:58:00,52.8,39.7,29.70,ESE,103,0.0,32.0,61,0.00,,---,0.00,VWS V12.07,2013-08-24 07:58:00,
2013-08-24 00:59:00,52.8,40.2,29.70,ESE,103,0.0,32.0,62,0.00,,---,0.00,VWS V12.07,2013-08-24 07:59:00,
2013-08-24 01:02:00,52.6,40.0,29.69,ESE,103,0.0,32.0,62,0.00,,---,0.00,VWS V12.07,2013-08-24 08:02:00,
2013-08-24 01:04:00,52.6,40.0,29.69,ESE,103,0.0,32.0,62,0.00,,---,0.00,VWS V12.07,2013-08-24 08:04:00,
2013-08-24 01:05:00,52.5,39.9,29.69,ESE,103,0.0,32.0,62,0.00,,---,0.00,VWS V12.07,2013-08-24 08:05:00,
2013-08-24 01:07:00,52.5,39.9,29.69,ESE,103,0.0,32.0,62,0.00,,---,0.00,VWS V12.07,2013-08-24 08:07:00,
2013-08-24 01:09:00,52.5,39.9,29.69,ESE,103,0.0,32.0,62,0.00,,---,0.00,VWS V12.07,2013-08-24 08:09:00,
2013-08-24 01:10:00,52.5,39.9,29.69,ESE,103,0.0,32.0,62,0.00,,---,0.00,VWS V12.07,2013-08-24 08:10:00,
2013-08-24 01:13:00,52.5,40.3,29.69,ESE,103,0.0,32.0,63,0.00,,---,0.00,VWS V12.07,2013-08-24 08:13:00,
2013-08-24 01:14:00,52.6,40.0,29.69,ESE,103,0.0,32.0,62,0.00,,---,0.00,VWS V12.07,2013-08-24 08:14:00,
2013-08-24 01:15:00,52.6,40.0,29.69,ESE,103,0.0,32.0,62,0.00,,---,0.00,VWS V12.07,2013-08-24 08:15:00,
2013-08-24 01:16:00,52.8,40.2,29.69,ESE,103,0.0,32.0,62,0.00,,---,0.00,VWS V12.07,2013-08-24 08:16:00,
2013-08-24 01:18:00,52.8,40.2,29.69,ESE,103,2.0,32.0,62,0.00,,---,0.00,VWS V12.07,2013-08-24 08:18:00,
2013-08-24 01:20:00,52.6,40.0,29.69,ESE,103,0.0,32.0,62,0.00,,---,0.00,VWS V12.07,2013-08-24 08:20:00,
2013-08-24 01:21:00,52.6,40.0,29.69,ESE,103,0.0,32.0,62,0.00,,---,0.00,VWS V12.07,2013-08-24 08:21:00,
2013-08-24 01:23:00,52.6,40.0,29.69,ESE,103,0.0,32.0,62,0.00,,---,0.00,VWS V12.07,2013-08-24 08:23:00,
2013-08-24 01:26:00,52.5,39.9,29.69,ESE,103,0.0,32.0,62,0.00,,---,0.00,VWS V12.07,2013-08-24 08:26:00,
2013-08-24 01:27:00,52.5,39.9,29.69,ESE,103,0.0,32.0,62,0.00,,---,0.00,VWS V12.07,2013-08-24 08:27:00,
2013-08-24 01:28:00,52.5,39.9,29.69,ESE,103,0.0,32.0,62,0.00,,---,0.00,VWS V12.07,2013-08-24 08:28:00,
2013-08-24 01:31:00,52.5,39.9,29.69,ESE,103,0.0,32.0,62,0.00,,---,0.00,VWS V12.07,2013-08-24 08:31:00,
2013-08-24 01:32:00,52.5,39.9,29.69,ESE,103,0.0,32.0,62,0.00,,---,0.00,VWS V12.07,2013-08-24 08:32:00,
2013-08-24 01:33:00,52.5,39.9,29.69,ESE,103,0.0,32.0,62,0.00,,---,0.00,VWS V12.07,2013-08-24 08:33:00,
2013-08-24 01:36:00,52.6,40.0,29.69,ESE,103,0.0,32.0,62,0.00,,---,0.00,VWS V12.07,2013-08-24 08:36:00,
2013-08-24 01:37:00,52.6,40.0,29.69,ESE,103,0.0,32.0,62,0.00,,---,0.00,VWS V12.07,2013-08-24 08:37:00,
2013-08-24 01:39:00,52.6,40.0,29.69,ESE,103,0.0,32.0,62,0.00,,---,0.00,VWS V12.07,2013-08-24 08:39:00,
2013-08-24 01:41:00,52.6,40.0,29.69,ESE,103,0.0,32.0,62,0.00,,---,0.00,VWS V12.07,2013-08-24 08:41:00,
2013-08-24 01:42:00,52.6,40.0,29.69,ESE,103,0.0,32.0,62,0.00,,---,0.00,VWS V12.07,2013-08-24 08:42:00,
2013-08-24 01:43:00,52.6,40.4,29.69,ESE,103,0.0,32.0,63,0.00,,---,0.00,VWS V12.07,2013-08-24 08:43:00,
2013-08-24 01:44:00,52.6,40.0,29.69,ESE,103,0.0,32.0,62,0.00,,---,0.00,VWS V12.07,2013-08-24 08:44:00,
2013-08-24 01:46:00,52.6,40.0,29.69,ESE,103,0.0,32.0,62,0.00,,---,0.00,VWS V12.07,2013-08-24 08:46:00,
2013-08-24 01:48:00,52.6,39.5,29.69,ESE,103,0.0,32.0,61,0.00,,---,0.00,VWS V12.07,2013-08-24 08:48:00,
2013-08-24 01:49:00,52.6,39.5,29.69,ESE,103,0.0,32.0,61,0.00,,---,0.00,VWS V12.07,2013-08-24 08:49:00,
2013-08-24 01:50:00,52.5,39.5,29.69,ESE,103,0.0,32.0,61,0.00,,---,0.00,VWS V12.07,2013-08-24 08:50:00,
2013-08-24 01:51:00,52.5,39.9,29.69,ESE,103,0.0,32.0,62,0.00,,---,0.00,VWS V12.07,2013-08-24 08:51:00,
2013-08-24 01:52:00,52.5,39.9,29.69,ESE,103,0.0,32.0,62,0.00,,---,0.00,VWS V12.07,2013-08-24 08:52:00,
2013-08-24 01:53:00,52.3,39.7,29.69,ESE,103,0.0,32.0,62,0.00,,---,0.00,VWS V12.07,2013-08-24 08:53:00,
2013-08-24 01:54:00,52.3,39.7,29.69,ESE,103,0.0,32.0,62,0.00,,---,0.00,VWS V12.07,2013-08-24 08:54:00,
2013-08-24 01:55:00,52.2,39.6,29.69,ESE,103,0.0,32.0,62,0.00,,---,0.00,VWS V12.07,2013-08-24 08:55:00,
2013-08-24 01:56:00,52.2,39.6,29.69,ESE,103,0.0,32.0,62,0.00,,---,0.00,VWS V12.07,2013-08-24 08:56:00,
2013-08-24 01:58:00,52.0,39.4,29.69,ESE,103,0.0,32.0,62,0.00,,---,0.00,VWS V12.07,2013-08-24 08:58:00,
2013-08-24 01:59:00,52.0,39.4,29.69,ESE,103,0.0,32.0,62,0.00,,---,0.00,VWS V12.07,2013-08-24 08:59:00,
2013-08-24 02:00:00,52.0,39.4,29.69,ESE,103,0.0,32.0,62,0.00,,---,0.00,VWS V12.07,2013-08-24 09:00:00,
2013-08-24 02:02:00,52.0,39.4,29.69,ESE,103,0.0,32.0,62,0.00,,---,0.00,VWS V12.07,2013-08-24 09:02:00,
2013-08-24 02:04:00,51.9,39.3,29.69,ESE,103,0.0,32.0,62,0.00,,---,0.00,VWS V12.07,2013-08-24 09:04:00,
2013-08-24 02:05:00,51.9,39.3,29.69,ESE,103,0.0,32.0,62,0.00,,---,0.00,VWS V12.07,2013-08-24 09:05:00,
2013-08-24 02:07:00,51.7,39.1,29.69,ESE,103,0.0,32.0,62,0.00,,---,0.00,VWS V12.07,2013-08-24 09:07:00,
2013-08-24 02:09:00,51.6,39.0,29.69,ESE,103,0.0,32.0,62,0.00,,---,0.00,VWS V12.07,2013-08-24 09:09:00,
2013-08-24 02:10:00,51.6,39.0,29.69,ESE,103,0.0,32.0,62,0.00,,---,0.00,VWS V12.07,2013-08-24 09:10:00,
2013-08-24 02:11:00,51.6,39.0,29.69,ESE,103,0.0,32.0,62,0.00,,---,0.00,VWS V12.07,2013-08-24 09:11:00,
2013-08-24 02:12:00,51.4,38.8,29.69,ESE,103,0.0,32.0,62,0.00,,---,0.00,VWS V12.07,2013-08-24 09:12:00,
2013-08-24 02:15:00,51.3,38.7,29.69,ESE,103,0.0,32.0,62,0.00,,---,0.00,VWS V12.07,2013-08-24 09:15:00,
2013-08-24 02:16:00,51.1,39.0,29.69,ESE,103,0.0,32.0,63,0.00,,---,0.00,VWS V12.07,2013-08-24 09:16:00,
2013-08-24 02:17:00,51.1,39.0,29.69,ESE,103,0.0,32.0,63,0.00,,---,0.00,VWS V12.07,2013-08-24 09:17:00,
2013-08-24 02:18:00,51.0,38.9,29.69,ESE,103,0.0,32.0,63,0.00,,---,0.00,VWS V12.07,2013-08-24 09:18:00,
2013-08-24 02:20:00,50.8,39.1,29.69,ESE,103,0.0,32.0,64,0.00,,---,0.00,VWS V12.07,2013-08-24 09:20:00,
2013-08-24 02:21:00,50.8,39.1,29.69,ESE,103,0.0,32.0,64,0.00,,---,0.00,VWS V12.07,2013-08-24 09:21:00,
2013-08-24 02:22:00,50.8,39.1,29.69,ESE,103,0.0,32.0,64,0.00,,---,0.00,VWS V12.07,2013-08-24 09:22:00,
2013-08-24 02:23:00,50.8,38.3,29.69,ESE,103,0.0,32.0,62,0.00,,---,0.00,VWS V12.07,2013-08-24 09:23:00,
2013-08-24 02:25:00,50.7,39.0,29.69,ESE,103,0.0,32.0,64,0.00,,---,0.00,VWS V12.07,2013-08-24 09:25:00,
2013-08-24 02:26:00,50.5,38.8,29.69,ESE,103,0.0,32.0,64,0.00,,---,0.00,VWS V12.07,2013-08-24 09:26:00,
2013-08-24 02:27:00,50.5,38.8,29.69,ESE,103,0.0,32.0,64,0.00,,---,0.00,VWS V12.07,2013-08-24 09:27:00,
2013-08-24 02:28:00,50.4,38.7,29.69,ESE,103,0.0,32.0,64,0.00,,---,0.00,VWS V12.07,2013-08-24 09:28:00,
2013-08-24 02:30:00,50.2,38.9,29.70,ESE,103,0.0,32.0,65,0.00,,---,0.00,VWS V12.07,2013-08-24 09:30:00,
2013-08-24 02:31:00,50.1,38.8,29.70,ESE,103,0.0,32.0,65,0.00,,---,0.00,VWS V12.07,2013-08-24 09:31:00,
2013-08-24 02:32:00,50.1,39.2,29.70,ESE,103,0.0,32.0,66,0.00,,---,0.00,VWS V12.07,2013-08-24 09:32:00,
2013-08-24 02:34:00,49.9,39.0,29.70,ESE,103,0.0,32.0,66,0.00,,---,0.00,VWS V12.07,2013-08-24 09:34:00,
2013-08-24 02:35:00,49.8,38.5,29.70,ESE,103,0.0,32.0,65,0.00,,---,0.00,VWS V12.07,2013-08-24 09:35:00,
2013-08-24 02:37:00,49.8,38.5,29.70,ESE,103,0.0,32.0,65,0.00,,---,0.00,VWS V12.07,2013-08-24 09:37:00,
2013-08-24 02:39:00,49.5,38.2,29.70,ESE,103,0.0,32.0,65,0.00,,---,0.00,VWS V12.07,2013-08-24 09:39:00,
2013-08-24 02:41:00,49.4,37.8,29.70,ESE,103,0.0,32.0,64,0.00,,---,0.00,VWS V12.07,2013-08-24 09:41:00,
2013-08-24 02:42:00,49.4,38.1,29.70,ESE,103,0.0,32.0,65,0.00,,---,0.00,VWS V12.07,2013-08-24 09:42:00,
2013-08-24 02:45:00,49.2,38.0,29.70,ESE,103,0.0,32.0,65,0.00,,---,0.00,VWS V12.07,2013-08-24 09:45:00,
2013-08-24 02:46:00,49.1,38.2,29.70,ESE,103,0.0,32.0,66,0.00,,---,0.00,VWS V12.07,2013-08-24 09:46:00,
2013-08-24 02:47:00,49.1,38.2,29.70,ESE,103,0.0,32.0,66,0.00,,---,0.00,VWS V12.07,2013-08-24 09:47:00,
2013-08-24 02:48:00,49.1,38.2,29.70,ESE,103,0.0,32.0,66,0.00,,---,0.00,VWS V12.07,2013-08-24 09:48:00,
2013-08-24 02:49:00,48.9,37.7,29.70,ESE,103,0.0,32.0,65,0.00,,---,0.00,VWS V12.07,2013-08-24 09:49:00,
2013-08-24 02:50:00,48.9,37.7,29.70,ESE,103,0.0,32.0,65,0.00,,---,0.00,VWS V12.07,2013-08-24 09:50:00,
2013-08-24 02:51:00,48.8,38.0,29.70,ESE,103,0.0,32.0,66,0.00,,---,0.00,VWS V12.07,2013-08-24 09:51:00,
2013-08-24 02:53:00,48.8,38.3,29.70,ESE,103,0.0,32.0,67,0.00,,---,0.00,VWS V12.07,2013-08-24 09:53:00,
2013-08-24 02:54:00,48.6,37.8,29.70,ESE,103,0.0,32.0,66,0.00,,---,0.00,VWS V12.07,2013-08-24 09:54:00,
2013-08-24 02:55:00,48.5,38.4,29.70,ESE,103,0.0,32.0,68,0.00,,---,0.00,VWS V12.07,2013-08-24 09:55:00,
2013-08-24 02:57:00,48.3,37.9,29.70,ESE,103,0.0,32.0,67,0.00,,---,0.00,VWS V12.07,2013-08-24 09:57:00,
2013-08-24 02:58:00,48.2,38.2,29.70,ESE,103,0.0,32.0,68,0.00,,---,0.00,VWS V12.07,2013-08-24 09:58:00,
2013-08-24 02:59:00,48.2,38.2,29.70,ESE,103,0.0,32.0,68,0.00,,---,0.00,VWS V12.07,2013-08-24 09:59:00,
2013-08-24 03:01:00,48.0,38.0,29.71,ESE,103,0.0,32.0,68,0.00,,---,0.00,VWS V12.07,2013-08-24 10:01:00,
2013-08-24 03:02:00,48.0,38.0,29.71,ESE,103,0.0,32.0,68,0.00,,---,0.00,VWS V12.07,2013-08-24 10:02:00,
2013-08-24 03:03:00,48.0,38.0,29.71,ESE,103,0.0,32.0,68,0.00,,---,0.00,VWS V12.07,2013-08-24 10:03:00,
2013-08-24 03:04:00,48.0,38.3,29.71,ESE,103,0.0,32.0,69,0.00,,---,0.00,VWS V12.07,2013-08-24 10:04:00,
2013-08-24 03:06:00,47.9,37.5,29.71,ESE,103,0.0,32.0,67,0.00,,---,0.00,VWS V12.07,2013-08-24 10:06:00,
2013-08-24 03:07:00,47.9,37.5,29.71,ESE,103,0.0,32.0,67,0.00,,---,0.00,VWS V12.07,2013-08-24 10:07:00,
2013-08-24 03:09:00,47.9,37.5,29.71,ESE,103,0.0,32.0,67,0.00,,---,0.00,VWS V12.07,2013-08-24 10:09:00,
2013-08-24 03:10:00,47.9,37.5,29.71,ESE,103,0.0,32.0,67,0.00,,---,0.00,VWS V12.07,2013-08-24 10:10:00,
2013-08-24 03:12:00,47.9,37.9,29.71,ESE,103,0.0,32.0,68,0.00,,---,0.00,VWS V12.07,2013-08-24 10:12:00,
2013-08-24 03:13:00,47.7,37.3,29.71,ESE,103,0.0,32.0,67,0.00,,---,0.00,VWS V12.07,2013-08-24 10:13:00,
2013-08-24 03:14:00,47.7,37.7,29.71,ESE,103,0.0,32.0,68,0.00,,---,0.00,VWS V12.07,2013-08-24 10:14:00,
2013-08-24 03:15:00,47.7,37.7,29.70,ESE,103,0.0,32.0,68,0.00,,---,0.00,VWS V12.07,2013-08-24 10:15:00,
2013-08-24 03:16:00,47.6,37.6,29.70,ESE,103,0.0,32.0,68,0.00,,---,0.00,VWS V12.07,2013-08-24 10:16:00,
2013-08-24 03:17:00,47.6,37.6,29.70,ESE,103,0.0,32.0,68,0.00,,---,0.00,VWS V12.07,2013-08-24 10:17:00,
2013-08-24 03:18:00,47.6,37.6,29.70,ESE,103,0.0,32.0,68,0.00,,---,0.00,VWS V12.07,2013-08-24 10:18:00,
2013-08-24 03:19:00,47.4,37.0,29.70,ESE,103,0.0,32.0,67,0.00,,---,0.00,VWS V12.07,2013-08-24 10:19:00,
2013-08-24 03:20:00,47.4,37.8,29.70,ESE,103,0.0,32.0,69,0.00,,---,0.00,VWS V12.07,2013-08-24 10:20:00,
2013-08-24 03:21:00,47.4,37.4,29.70,ESE,103,0.0,32.0,68,0.00,,---,0.00,VWS V12.07,2013-08-24 10:21:00,
2013-08-24 03:23:00,47.3,37.3,29.70,ESE,103,0.0,32.0,68,0.00,,---,0.00,VWS V12.07,2013-08-24 10:23:00,
2013-08-24 03:24:00,47.3,37.3,29.70,ESE,103,0.0,32.0,68,0.00,,---,0.00,VWS V12.07,2013-08-24 10:24:00,
2013-08-24 03:26:00,47.3,37.3,29.70,ESE,103,0.0,32.0,68,0.00,,---,0.00,VWS V12.07,2013-08-24 10:26:00,
2013-08-24 03:27:00,47.3,37.3,29.70,ESE,103,0.0,32.0,68,0.00,,---,0.00,VWS V12.07,2013-08-24 10:27:00,
2013-08-24 03:28:00,47.3,37.3,29.70,ESE,103,0.0,32.0,68,0.00,,---,0.00,VWS V12.07,2013-08-24 10:28:00,
2013-08-24 03:29:00,47.1,37.1,29.70,ESE,103,0.0,32.0,68,0.00,,---,0.00,VWS V12.07,2013-08-24 10:29:00,
2013-08-24 03:30:00,47.1,37.1,29.70,ESE,103,0.0,32.0,68,0.00,,---,0.00,VWS V12.07,2013-08-24 10:30:00,
2013-08-24 03:31:00,47.0,37.0,29.70,ESE,103,0.0,32.0,68,0.00,,---,0.00,VWS V12.07,2013-08-24 10:31:00,
2013-08-24 03:32:00,47.0,37.0,29.70,ESE,103,0.0,32.0,68,0.00,,---,0.00,VWS V12.07,2013-08-24 10:32:00,
2013-08-24 03:33:00,47.0,37.0,29.70,ESE,103,0.0,32.0,68,0.00,,---,0.00,VWS V12.07,2013-08-24 10:33:00,
2013-08-24 03:34:00,47.0,37.0,29.70,ESE,103,0.0,32.0,68,0.00,,---,0.00,VWS V12.07,2013-08-24 10:34:00,
2013-08-24 03:37:00,46.8,37.2,29.70,ESE,103,0.0,32.0,69,0.00,,---,0.00,VWS V12.07,2013-08-24 10:37:00,
2013-08-24 03:39:00,46.8,37.2,29.70,ESE,103,0.0,32.0,69,0.00,,---,0.00,VWS V12.07,2013-08-24 10:39:00,
2013-08-24 03:42:00,46.7,36.7,29.70,ESE,103,0.0,32.0,68,0.00,,---,0.00,VWS V12.07,2013-08-24 10:42:00,
2013-08-24 03:43:00,46.7,36.7,29.70,ESE,103,0.0,32.0,68,0.00,,---,0.00,VWS V12.07,2013-08-24 10:43:00,
2013-08-24 03:45:00,46.7,36.7,29.70,ESE,103,0.0,32.0,68,0.00,,---,0.00,VWS V12.07,2013-08-24 10:45:00,
2013-08-24 03:47:00,46.5,36.9,29.70,ESE,103,0.0,32.0,69,0.00,,---,0.00,VWS V12.07,2013-08-24 10:47:00,
2013-08-24 03:48:00,46.5,36.9,29.70,ESE,103,0.0,32.0,69,0.00,,---,0.00,VWS V12.07,2013-08-24 10:48:00,
2013-08-24 03:50:00,46.5,36.5,29.70,ESE,103,0.0,32.0,68,0.00,,---,0.00,VWS V12.07,2013-08-24 10:50:00,
2013-08-24 03:53:00,46.4,36.4,29.70,ESE,103,0.0,32.0,68,0.00,,---,0.00,VWS V12.07,2013-08-24 10:53:00,
2013-08-24 03:55:00,46.2,36.2,29.70,ESE,103,0.0,32.0,68,0.00,,---,0.00,VWS V12.07,2013-08-24 10:55:00,
2013-08-24 03:58:00,46.0,36.0,29.70,ESE,103,0.0,32.0,68,0.00,,---,0.00,VWS V12.07,2013-08-24 10:58:00,
2013-08-24 03:59:00,46.0,36.0,29.70,ESE,103,0.0,32.0,68,0.00,,---,0.00,VWS V12.07,2013-08-24 10:59:00,
2013-08-24 04:00:00,46.0,36.4,29.70,ESE,103,0.0,32.0,69,0.00,,---,0.00,VWS V12.07,2013-08-24 11:00:00,
2013-08-24 04:01:00,45.8,36.2,29.70,ESE,103,0.0,32.0,69,0.00,,---,0.00,VWS V12.07,2013-08-24 11:01:00,
2013-08-24 04:04:00,45.8,36.6,29.70,ESE,103,0.0,32.0,70,0.00,,---,0.00,VWS V12.07,2013-08-24 11:04:00,
2013-08-24 04:05:00,45.8,36.6,29.70,ESE,103,0.0,32.0,70,0.00,,---,0.00,VWS V12.07,2013-08-24 11:05:00,
2013-08-24 04:06:00,45.8,36.6,29.70,ESE,103,0.0,32.0,70,0.00,,---,0.00,VWS V12.07,2013-08-24 11:06:00,
2013-08-24 04:09:00,45.7,36.1,29.70,ESE,103,0.0,32.0,69,0.00,,---,0.00,VWS V12.07,2013-08-24 11:09:00,
2013-08-24 04:10:00,45.5,35.9,29.70,ESE,103,0.0,32.0,69,0.00,,---,0.00,VWS V12.07,2013-08-24 11:10:00,
2013-08-24 04:11:00,45.4,35.8,29.70,ESE,103,0.0,32.0,69,0.00,,---,0.00,VWS V12.07,2013-08-24 11:11:00,
2013-08-24 04:14:00,45.2,35.7,29.70,ESE,103,0.0,32.0,69,0.00,,---,0.00,VWS V12.07,2013-08-24 11:14:00,
2013-08-24 04:15:00,45.2,36.0,29.70,ESE,103,0.0,32.0,70,0.00,,---,0.00,VWS V12.07,2013-08-24 11:15:00,
2013-08-24 04:16:00,45.2,36.0,29.70,ESE,103,0.0,32.0,70,0.00,,---,0.00,VWS V12.07,2013-08-24 11:16:00,
2013-08-24 04:19:00,45.1,35.9,29.70,ESE,103,0.0,32.0,70,0.00,,---,0.00,VWS V12.07,2013-08-24 11:19:00,
2013-08-24 04:20:00,45.1,36.3,29.70,ESE,103,0.0,32.0,71,0.00,,---,0.00,VWS V12.07,2013-08-24 11:20:00,
2013-08-24 04:21:00,45.1,36.3,29.70,ESE,103,0.0,32.0,71,0.00,,---,0.00,VWS V12.07,2013-08-24 11:21:00,
2013-08-24 04:22:00,45.1,36.3,29.70,ESE,103,0.0,32.0,71,0.00,,---,0.00,VWS V12.07,2013-08-24 11:22:00,
2013-08-24 04:24:00,45.1,36.3,29.70,ESE,103,0.0,32.0,71,0.00,,---,0.00,VWS V12.07,2013-08-24 11:24:00,
2013-08-24 04:26:00,45.2,36.4,29.70,ESE,103,0.0,32.0,71,0.00,,---,0.00,VWS V12.07,2013-08-24 11:26:00,
2013-08-24 04:27:00,45.2,36.4,29.70,ESE,103,0.0,32.0,71,0.00,,---,0.00,VWS V12.07,2013-08-24 11:27:00,
2013-08-24 04:28:00,45.2,36.4,29.70,ESE,103,0.0,32.0,71,0.00,,---,0.00,VWS V12.07,2013-08-24 11:28:00,
2013-08-24 04:30:00,45.2,36.4,29.70,ESE,103,0.0,32.0,71,0.00,,---,0.00,VWS V12.07,2013-08-24 11:30:00,
2013-08-24 04:31:00,45.1,36.3,29.70,ESE,103,0.0,32.0,71,0.00,,---,0.00,VWS V12.07,2013-08-24 11:31:00,
2013-08-24 04:33:00,45.1,35.9,29.70,ESE,103,0.0,32.0,70,0.00,,---,0.00,VWS V12.07,2013-08-24 11:33:00,
2013-08-24 04:35:00,44.9,36.1,29.70,ESE,103,0.0,32.0,71,0.00,,---,0.00,VWS V12.07,2013-08-24 11:35:00,
2013-08-24 04:36:00,44.9,36.1,29.70,ESE,103,0.0,32.0,71,0.00,,---,0.00,VWS V12.07,2013-08-24 11:36:00,
2013-08-24 04:38:00,44.8,35.6,29.70,ESE,103,0.0,32.0,70,0.00,,---,0.00,VWS V12.07,2013-08-24 11:38:00,
2013-08-24 04:40:00,44.8,36.0,29.70,ESE,103,0.0,32.0,71,0.00,,---,0.00,VWS V12.07,2013-08-24 11:40:00,
2013-08-24 04:41:00,44.8,35.6,29.70,ESE,103,0.0,32.0,70,0.00,,---,0.00,VWS V12.07,2013-08-24 11:41:00,
2013-08-24 04:43:00,44.6,35.4,29.70,ESE,103,0.0,32.0,70,0.00,,---,0.00,VWS V12.07,2013-08-24 11:43:00,
2013-08-24 04:44:00,44.6,35.4,29.70,ESE,103,0.0,32.0,70,0.00,,---,0.00,VWS V12.07,2013-08-24 11:44:00,
2013-08-24 04:45:00,44.5,35.3,29.70,ESE,103,0.0,32.0,70,0.00,,---,0.00,VWS V12.07,2013-08-24 11:45:00,
2013-08-24 04:46:00,44.5,35.3,29.70,ESE,103,0.0,32.0,70,0.00,,---,0.00,VWS V12.07,2013-08-24 11:46:00,
2013-08-24 04:47:00,44.5,35.3,29.70,ESE,103,0.0,32.0,70,0.00,,---,0.00,VWS V12.07,2013-08-24 11:47:00,
2013-08-24 04:49:00,44.3,35.5,29.70,ESE,103,0.0,32.0,71,0.00,,---,0.00,VWS V12.07,2013-08-24 11:49:00,
2013-08-24 04:51:00,44.2,35.8,29.70,ESE,103,0.0,32.0,72,0.00,,---,0.00,VWS V12.07,2013-08-24 11:51:00,
2013-08-24 04:52:00,44.3,36.2,29.70,ESE,103,0.0,32.0,73,0.00,,---,0.00,VWS V12.07,2013-08-24 11:52:00,
2013-08-24 04:55:00,44.2,35.4,29.70,ESE,103,0.0,32.0,71,0.00,,---,0.00,VWS V12.07,2013-08-24 11:55:00,
2013-08-24 04:56:00,44.2,35.4,29.70,ESE,103,0.0,32.0,71,0.00,,---,0.00,VWS V12.07,2013-08-24 11:56:00,
2013-08-24 04:57:00,44.2,35.4,29.70,ESE,103,0.0,32.0,71,0.00,,---,0.00,VWS V12.07,2013-08-24 11:57:00,
2013-08-24 04:58:00,44.2,35.4,29.70,ESE,103,0.0,32.0,71,0.00,,---,0.00,VWS V12.07,2013-08-24 11:58:00,
2013-08-24 05:00:00,44.2,35.4,29.70,ESE,103,0.0,32.0,71,0.00,,---,0.00,VWS V12.07,2013-08-24 12:00:00,
2013-08-24 05:02:00,44.2,35.4,29.70,ESE,103,0.0,32.0,71,0.00,,---,0.00,VWS V12.07,2013-08-24 12:02:00,
2013-08-24 05:03:00,44.2,35.4,29.70,ESE,103,0.0,32.0,71,0.00,,---,0.00,VWS V12.07,2013-08-24 12:03:00,
2013-08-24 05:05:00,44.2,35.4,29.70,ESE,103,0.0,32.0,71,0.00,,---,0.00,VWS V12.07,2013-08-24 12:05:00,
2013-08-24 05:07:00,44.1,35.0,29.70,ESE,103,0.0,32.0,70,0.00,,---,0.00,VWS V12.07,2013-08-24 12:07:00,
2013-08-24 05:08:00,44.1,35.0,29.70,ESE,103,0.0,32.0,70,0.00,,---,0.00,VWS V12.07,2013-08-24 12:08:00,
2013-08-24 05:09:00,44.1,35.3,29.70,ESE,103,0.0,32.0,71,0.00,,---,0.00,VWS V12.07,2013-08-24 12:09:00,
2013-08-24 05:11:00,43.9,34.8,29.70,ESE,103,0.0,32.0,70,0.00,,---,0.00,VWS V12.07,2013-08-24 12:11:00,
2013-08-24 05:12:00,43.9,34.8,29.70,ESE,103,0.0,32.0,70,0.00,,---,0.00,VWS V12.07,2013-08-24 12:12:00,
2013-08-24 05:13:00,43.8,34.7,29.70,ESE,103,0.0,32.0,70,0.00,,---,0.00,VWS V12.07,2013-08-24 12:13:00,
2013-08-24 05:14:00,43.8,34.7,29.70,ESE,103,0.0,32.0,70,0.00,,---,0.00,VWS V12.07,2013-08-24 12:14:00,
2013-08-24 05:16:00,43.6,34.8,29.70,ESE,103,0.0,32.0,71,0.00,,---,0.00,VWS V12.07,2013-08-24 12:16:00,
2013-08-24 05:17:00,43.6,34.8,29.70,ESE,103,0.0,32.0,71,0.00,,---,0.00,VWS V12.07,2013-08-24 12:17:00,
2013-08-24 05:18:00,43.5,34.7,29.70,ESE,103,0.0,32.0,71,0.00,,---,0.00,VWS V12.07,2013-08-24 12:18:00,
2013-08-24 05:19:00,43.5,34.7,29.70,ESE,103,0.0,32.0,71,0.00,,---,0.00,VWS V12.07,2013-08-24 12:19:00,
2013-08-24 05:21:00,43.3,34.5,29.70,ESE,103,0.0,32.0,71,0.00,,---,0.00,VWS V12.07,2013-08-24 12:21:00,
2013-08-24 05:22:00,43.3,34.9,29.70,ESE,103,0.0,32.0,72,0.00,,---,0.00,VWS V12.07,2013-08-24 12:22:00,
2013-08-24 05:23:00,43.3,34.9,29.70,ESE,103,0.0,32.0,72,0.00,,---,0.00,VWS V12.07,2013-08-24 12:23:00,
2013-08-24 05:24:00,43.2,34.8,29.70,ESE,103,0.0,32.0,72,0.00,,---,0.00,VWS V12.07,2013-08-24 12:24:00,
2013-08-24 05:26:00,43.2,34.8,29.70,ESE,103,0.0,32.0,72,0.00,,---,0.00,VWS V12.07,2013-08-24 12:26:00,
2013-08-24 05:27:00,43.2,34.8,29.70,ESE,103,0.0,32.0,72,0.00,,---,0.00,VWS V12.07,2013-08-24 12:27:00,
2013-08-24 05:28:00,43.2,34.8,29.70,ESE,103,0.0,32.0,72,0.00,,---,0.00,VWS V12.07,2013-08-24 12:28:00,
2013-08-24 05:29:00,43.2,34.8,29.70,ESE,103,0.0,32.0,72,0.00,,---,0.00,VWS V12.07,2013-08-24 12:29:00,
2013-08-24 05:32:00,43.1,34.3,29.70,ESE,103,0.0,32.0,71,0.00,,---,0.00,VWS V12.07,2013-08-24 12:32:00,
2013-08-24 05:33:00,43.1,35.0,29.70,ESE,103,0.0,32.0,73,0.00,,---,0.00,VWS V12.07,2013-08-24 12:33:00,
2013-08-24 05:34:00,42.9,34.8,29.70,ESE,103,0.0,32.0,73,0.00,,---,0.00,VWS V12.07,2013-08-24 12:34:00,
2013-08-24 05:37:00,42.8,34.4,29.70,ESE,103,0.0,32.0,72,0.00,,---,0.00,VWS V12.07,2013-08-24 12:37:00,
2013-08-24 05:38:00,42.8,34.8,29.70,ESE,103,0.0,32.0,73,0.00,,---,0.00,VWS V12.07,2013-08-24 12:38:00,
2013-08-24 05:39:00,42.8,34.8,29.70,ESE,103,0.0,32.0,73,0.00,,---,0.00,VWS V12.07,2013-08-24 12:39:00,
2013-08-24 05:42:00,42.6,34.6,29.70,ESE,103,0.0,32.0,73,0.00,,---,0.00,VWS V12.07,2013-08-24 12:42:00,
2013-08-24 05:43:00,42.8,34.8,29.70,ESE,103,0.0,32.0,73,0.00,,---,0.00,VWS V12.07,2013-08-24 12:43:00,
2013-08-24 05:44:00,42.8,35.1,29.70,ESE,103,0.0,32.0,74,0.00,,---,0.00,VWS V12.07,2013-08-24 12:44:00,
2013-08-24 05:45:00,42.6,34.6,29.70,ESE,103,0.0,32.0,73,0.00,,---,0.00,VWS V12.07,2013-08-24 12:45:00,
2013-08-24 05:47:00,42.6,34.6,29.70,ESE,103,0.0,32.0,73,0.00,,---,0.00,VWS V12.07,2013-08-24 12:47:00,
2013-08-24 05:49:00,42.8,34.8,29.70,ESE,103,0.0,32.0,73,0.00,,---,0.00,VWS V12.07,2013-08-24 12:49:00,
2013-08-24 05:51:00,42.8,35.1,29.70,ESE,103,0.0,32.0,74,0.00,,---,0.00,VWS V12.07,2013-08-24 12:51:00,
2013-08-24 05:52:00,42.8,35.1,29.70,ESE,103,0.0,32.0,74,0.00,,---,0.00,VWS V12.07,2013-08-24 12:52:00,
2013-08-24 05:54:00,42.8,35.1,29.70,ESE,103,0.0,32.0,74,0.00,,---,0.00,VWS V12.07,2013-08-24 12:54:00,
2013-08-24 05:55:00,42.9,34.8,29.70,ESE,103,0.0,32.0,73,0.00,,---,0.00,VWS V12.07,2013-08-24 12:55:00,
2013-08-24 05:56:00,43.1,35.7,29.70,ESE,103,0.0,32.0,75,0.00,,---,0.00,VWS V12.07,2013-08-24 12:56:00,
2013-08-24 05:57:00,43.1,35.7,29.70,ESE,103,0.0,32.0,75,0.00,,---,0.00,VWS V12.07,2013-08-24 12:57:00,
2013-08-24 05:59:00,43.2,35.5,29.70,ESE,103,0.0,32.0,74,0.00,,---,0.00,VWS V12.07,2013-08-24 12:59:00,
2013-08-24 06:00:00,43.2,35.5,29.70,ESE,103,0.0,32.0,74,0.00,,---,0.00,VWS V12.07,2013-08-24 13:00:00,
2013-08-24 06:02:00,43.2,35.1,29.70,ESE,103,0.0,32.0,73,0.00,,---,0.00,VWS V12.07,2013-08-24 13:02:00,
2013-08-24 06:03:00,43.2,35.1,29.70,ESE,103,0.0,32.0,73,0.00,,---,0.00,VWS V12.07,2013-08-24 13:03:00,
2013-08-24 06:05:00,43.2,35.1,29.70,ESE,103,0.0,32.0,73,0.00,,---,0.00,VWS V12.07,2013-08-24 13:05:00,
2013-08-24 06:07:00,43.2,35.5,29.70,ESE,103,0.0,32.0,74,0.00,,---,0.00,VWS V12.07,2013-08-24 13:07:00,
2013-08-24 06:08:00,43.3,35.6,29.70,ESE,103,0.0,32.0,74,0.00,,---,0.00,VWS V12.07,2013-08-24 13:08:00,
2013-08-24 06:10:00,43.3,35.6,29.70,ESE,103,0.0,32.0,74,0.00,,---,0.00,VWS V12.07,2013-08-24 13:10:00,
2013-08-24 06:12:00,43.5,36.1,29.70,ESE,103,0.0,32.0,75,0.00,,---,0.00,VWS V12.07,2013-08-24 13:12:00,
2013-08-24 06:13:00,43.5,36.1,29.70,ESE,103,0.0,32.0,75,0.00,,---,0.00,VWS V12.07,2013-08-24 13:13:00,
2013-08-24 06:15:00,43.6,35.9,29.71,ESE,103,0.0,32.0,74,0.00,,---,0.00,VWS V12.07,2013-08-24 13:15:00,
2013-08-24 06:18:00,43.6,35.9,29.71,ESE,103,0.0,32.0,74,0.00,,---,0.00,VWS V12.07,2013-08-24 13:18:00,
2013-08-24 06:20:00,43.8,36.4,29.71,ESE,103,0.0,32.0,75,0.00,,---,0.00,VWS V12.07,2013-08-24 13:20:00,
2013-08-24 06:21:00,43.8,36.4,29.71,ESE,103,0.0,32.0,75,0.00,,---,0.00,VWS V12.07,2013-08-24 13:21:00,
2013-08-24 06:23:00,44.1,37.0,29.71,ESE,103,0.0,32.0,76,0.00,,---,0.00,VWS V12.07,2013-08-24 13:23:00,
2013-08-24 06:24:00,44.1,37.0,29.71,ESE,103,0.0,32.0,76,0.00,,---,0.00,VWS V12.07,2013-08-24 13:24:00,
2013-08-24 06:26:00,44.2,37.8,29.71,ESE,103,0.0,32.0,78,0.00,,---,0.00,VWS V12.07,2013-08-24 13:26:00,
2013-08-24 06:28:00,44.3,37.6,29.71,ESE,103,0.0,32.0,77,0.00,,---,0.00,VWS V12.07,2013-08-24 13:28:00,
2013-08-24 06:29:00,44.3,37.6,29.71,ESE,103,0.0,32.0,77,0.00,,---,0.00,VWS V12.07,2013-08-24 13:29:00,
2013-08-24 06:31:00,44.6,38.2,29.70,ESE,103,0.0,32.0,78,0.00,,---,0.00,VWS V12.07,2013-08-24 13:31:00,
2013-08-24 06:33:00,44.6,37.8,29.70,ESE,103,0.0,32.0,77,0.00,,---,0.00,VWS V12.07,2013-08-24 13:33:00,
2013-08-24 06:34:00,44.8,38.0,29.70,ESE,103,0.0,32.0,77,0.00,,---,0.00,VWS V12.07,2013-08-24 13:34:00,
2013-08-24 06:36:00,44.9,38.1,29.70,ESE,103,0.0,32.0,77,0.00,,---,0.00,VWS V12.07,2013-08-24 13:36:00,
2013-08-24 06:39:00,45.4,38.3,29.70,ESE,103,0.0,32.0,76,0.00,,---,0.00,VWS V12.07,2013-08-24 13:39:00,
2013-08-24 06:41:00,45.5,38.7,29.70,ESE,103,0.0,32.0,77,0.00,,---,0.00,VWS V12.07,2013-08-24 13:41:00,
2013-08-24 06:44:00,45.7,39.2,29.70,ESE,103,0.0,32.0,78,0.00,,---,0.00,VWS V12.07,2013-08-24 13:44:00,
2013-08-24 06:45:00,45.7,38.6,29.70,ESE,103,0.0,32.0,76,0.00,,---,0.00,VWS V12.07,2013-08-24 13:45:00,
2013-08-24 06:46:00,45.7,39.2,29.70,ESE,103,0.0,32.0,78,0.00,,---,0.00,VWS V12.07,2013-08-24 13:46:00,
2013-08-24 06:47:00,45.8,39.0,29.70,ESE,103,0.0,32.0,77,0.00,,---,0.00,VWS V12.07,2013-08-24 13:47:00,
2013-08-24 06:49:00,46.0,39.5,29.70,ESE,103,0.0,32.0,78,0.00,,---,0.00,VWS V12.07,2013-08-24 13:49:00,
2013-08-24 06:50:00,46.2,39.7,29.70,ESE,103,0.0,32.0,78,0.00,,---,0.00,VWS V12.07,2013-08-24 13:50:00,
2013-08-24 06:52:00,46.4,40.2,29.70,ESE,103,0.0,32.0,79,0.00,,---,0.00,VWS V12.07,2013-08-24 13:52:00,
2013-08-24 06:55:00,46.8,40.6,29.70,ESE,103,0.0,32.0,79,0.00,,---,0.00,VWS V12.07,2013-08-24 13:55:00,
2013-08-24 06:56:00,47.0,40.8,29.70,ESE,103,0.0,32.0,79,0.00,,---,0.00,VWS V12.07,2013-08-24 13:56:00,
2013-08-24 06:57:00,47.0,40.8,29.70,ESE,103,0.0,32.0,79,0.00,,---,0.00,VWS V12.07,2013-08-24 13:57:00,
2013-08-24 07:00:00,47.0,40.5,29.69,ESE,103,0.0,32.0,78,0.00,,---,0.00,VWS V12.07,2013-08-24 14:00:00,
2013-08-24 07:01:00,47.0,40.5,29.69,ESE,103,0.0,32.0,78,0.00,,---,0.00,VWS V12.07,2013-08-24 14:01:00,
2013-08-24 07:02:00,47.1,40.3,29.69,ESE,103,0.0,32.0,77,0.00,,---,0.00,VWS V12.07,2013-08-24 14:02:00,
2013-08-24 07:03:00,47.1,40.3,29.69,ESE,103,0.0,32.0,77,0.00,,---,0.00,VWS V12.07,2013-08-24 14:03:00,
2013-08-24 07:06:00,47.1,39.6,29.69,ESE,103,0.0,32.0,75,0.00,,---,0.00,VWS V12.07,2013-08-24 14:06:00,
2013-08-24 07:07:00,47.3,39.8,29.69,ESE,103,0.0,32.0,75,0.00,,---,0.00,VWS V12.07,2013-08-24 14:07:00,
2013-08-24 07:09:00,47.3,40.1,29.69,ESE,103,0.0,32.0,76,0.00,,---,0.00,VWS V12.07,2013-08-24 14:09:00,
2013-08-24 07:11:00,47.4,40.6,29.69,ESE,103,0.0,32.0,77,0.00,,---,0.00,VWS V12.07,2013-08-24 14:11:00,
2013-08-24 07:12:00,47.4,40.6,29.69,ESE,103,0.0,32.0,77,0.00,,---,0.00,VWS V12.07,2013-08-24 14:12:00,
2013-08-24 07:14:00,47.6,40.8,29.71,ESE,103,0.0,32.0,77,0.00,,---,0.00,VWS V12.07,2013-08-24 14:14:00,
2013-08-24 07:16:00,47.7,40.8,29.71,ESE,103,0.0,32.0,77,0.00,,---,0.00,VWS V12.07,2013-08-24 14:16:00,
2013-08-24 07:17:00,47.7,40.8,29.71,ESE,103,0.0,32.0,77,0.00,,---,0.00,VWS V12.07,2013-08-24 14:17:00,
2013-08-24 07:18:00,47.6,40.8,29.71,ESE,103,0.0,32.0,77,0.00,,---,0.00,VWS V12.07,2013-08-24 14:18:00,
2013-08-24 07:20:00,47.6,40.1,29.71,ESE,103,0.0,32.0,75,0.00,,---,0.00,VWS V12.07,2013-08-24 14:20:00,
2013-08-24 07:22:00,47.7,40.2,29.71,ESE,103,0.0,32.0,75,0.00,,---,0.00,VWS V12.07,2013-08-24 14:22:00,
2013-08-24 07:23:00,47.7,40.5,29.71,ESE,103,0.0,32.0,76,0.00,,---,0.00,VWS V12.07,2013-08-24 14:23:00,
2013-08-24 07:24:00,47.9,40.7,29.71,ESE,103,0.0,32.0,76,0.00,,---,0.00,VWS V12.07,2013-08-24 14:24:00,
2013-08-24 07:25:00,48.0,41.2,29.71,ESE,103,0.0,32.0,77,0.00,,---,0.00,VWS V12.07,2013-08-24 14:25:00,
2013-08-24 07:28:00,48.2,41.3,29.71,ESE,103,0.0,32.0,77,0.00,,---,0.00,VWS V12.07,2013-08-24 14:28:00,
2013-08-24 07:29:00,48.3,41.1,29.71,ESE,103,0.0,32.0,76,0.00,,---,0.00,VWS V12.07,2013-08-24 14:29:00,
2013-08-24 07:31:00,48.5,41.3,29.71,ESE,103,0.0,32.0,76,0.00,,---,0.00,VWS V12.07,2013-08-24 14:31:00,
2013-08-24 07:33:00,48.8,41.9,29.71,ESE,103,0.0,32.0,77,0.00,,---,0.00,VWS V12.07,2013-08-24 14:33:00,
2013-08-24 07:34:00,48.9,42.0,29.71,ESE,103,0.0,32.0,77,0.00,,---,0.00,VWS V12.07,2013-08-24 14:34:00,
2013-08-24 07:36:00,49.2,42.3,29.71,ESE,103,0.0,32.0,77,0.00,,---,0.00,VWS V12.07,2013-08-24 14:36:00,
2013-08-24 07:39:00,49.6,42.7,29.71,ESE,103,0.0,32.0,77,0.00,,---,0.00,VWS V12.07,2013-08-24 14:39:00,
2013-08-24 07:40:00,49.8,42.9,29.71,ESE,103,0.0,32.0,77,0.00,,---,0.00,VWS V12.07,2013-08-24 14:40:00,
2013-08-24 07:41:00,49.9,43.0,29.71,ESE,103,0.0,32.0,77,0.00,,---,0.00,VWS V12.07,2013-08-24 14:41:00,
2013-08-24 07:44:00,50.4,43.5,29.71,ESE,103,0.0,32.0,77,0.00,,---,0.00,VWS V12.07,2013-08-24 14:44:00,
2013-08-24 07:45:00,50.7,43.8,29.70,ESE,103,0.0,32.0,77,0.00,,---,0.00,VWS V12.07,2013-08-24 14:45:00,
2013-08-24 07:46:00,51.1,44.2,29.70,ESE,103,0.0,32.0,77,0.00,,---,0.00,VWS V12.07,2013-08-24 14:46:00,
2013-08-24 07:49:00,51.9,44.2,29.70,ESE,103,0.0,32.0,75,0.00,,---,0.00,VWS V12.07,2013-08-24 14:49:00,
2013-08-24 07:50:00,52.0,44.0,29.70,ESE,103,0.0,32.0,74,0.00,,---,0.00,VWS V12.07,2013-08-24 14:50:00,
2013-08-24 07:51:00,52.2,44.2,29.70,ESE,103,0.0,32.0,74,0.00,,---,0.00,VWS V12.07,2013-08-24 14:51:00,
2013-08-24 07:55:00,53.1,45.0,29.70,ESE,103,0.0,32.0,74,0.00,,---,0.00,VWS V12.07,2013-08-24 14:55:00,
2013-08-24 07:56:00,53.2,44.4,29.70,ESE,103,0.0,32.0,72,0.00,,---,0.00,VWS V12.07,2013-08-24 14:56:00,
2013-08-24 07:57:00,53.5,44.0,29.70,ESE,103,0.0,32.0,70,0.00,,---,0.00,VWS V12.07,2013-08-24 14:57:00,
2013-08-24 08:00:00,54.2,44.6,29.68,ESE,103,0.0,32.0,70,0.00,,---,0.00,VWS V12.07,2013-08-24 15:00:00,
2013-08-24 08:01:00,54.4,44.8,29.68,ESE,103,0.0,32.0,70,0.00,,---,0.00,VWS V12.07,2013-08-24 15:01:00,
2013-08-24 08:02:00,54.5,44.9,29.68,ESE,103,0.0,32.0,70,0.00,,---,0.00,VWS V12.07,2013-08-24 15:02:00,
2013-08-24 08:05:00,54.7,45.1,29.68,ESE,103,0.0,32.0,70,0.00,,---,0.00,VWS V12.07,2013-08-24 15:05:00,
2013-08-24 08:06:00,55.0,45.0,29.68,ESE,104,1.0,32.0,69,0.00,,---,0.00,VWS V12.07,2013-08-24 15:06:00,
2013-08-24 08:07:00,55.3,44.5,29.68,ESE,104,0.0,32.0,67,0.00,,---,0.00,VWS V12.07,2013-08-24 15:07:00,
2013-08-24 08:11:00,55.7,44.9,29.68,ESE,104,0.0,32.0,67,0.00,,---,0.00,VWS V12.07,2013-08-24 15:11:00,
2013-08-24 08:12:00,55.9,45.1,29.68,ESE,104,0.0,32.0,67,0.00,,---,0.00,VWS V12.07,2013-08-24 15:12:00,
2013-08-24 08:13:00,55.9,45.1,29.68,ESE,104,0.0,32.0,67,0.00,,---,0.00,VWS V12.07,2013-08-24 15:13:00,
2013-08-24 08:16:00,56.2,45.4,29.69,ESE,104,0.0,32.0,67,0.00,,---,0.00,VWS V12.07,2013-08-24 15:16:00,
2013-08-24 08:18:00,56.3,45.5,29.69,ESE,104,0.0,32.0,67,0.00,,---,0.00,VWS V12.07,2013-08-24 15:18:00,
2013-08-24 08:21:00,56.5,45.7,29.69,ESE,104,0.0,32.0,67,0.00,,---,0.00,VWS V12.07,2013-08-24 15:21:00,
2013-08-24 08:23:00,56.7,45.9,29.69,ESE,104,0.0,32.0,67,0.00,,---,0.00,VWS V12.07,2013-08-24 15:23:00,
2013-08-24 08:24:00,56.7,45.5,29.69,ESE,104,0.0,32.0,66,0.00,,---,0.00,VWS V12.07,2013-08-24 15:24:00,
2013-08-24 08:26:00,57.0,45.8,29.69,ESE,104,0.0,32.0,66,0.00,,---,0.00,VWS V12.07,2013-08-24 15:26:00,
2013-08-24 08:27:00,57.0,45.8,29.69,ESE,104,0.0,32.0,66,0.00,,---,0.00,VWS V12.07,2013-08-24 15:27:00,
2013-08-24 08:28:00,57.2,46.0,29.69,ESE,104,2.0,32.0,66,0.00,,---,0.00,VWS V12.07,2013-08-24 15:28:00,
2013-08-24 08:29:00,57.2,46.0,29.69,ESE,104,2.0,32.0,66,0.00,,---,0.00,VWS V12.07,2013-08-24 15:29:00,
2013-08-24 08:31:00,57.2,45.2,29.69,ESE,104,0.0,32.0,64,0.00,,---,0.00,VWS V12.07,2013-08-24 15:31:00,
2013-08-24 08:32:00,57.2,45.2,29.69,ESE,104,0.0,32.0,64,0.00,,---,0.00,VWS V12.07,2013-08-24 15:32:00,
2013-08-24 08:34:00,57.3,45.2,29.69,ESE,104,0.0,32.0,64,0.00,,---,0.00,VWS V12.07,2013-08-24 15:34:00,
2013-08-24 08:36:00,57.5,45.4,29.69,ESE,104,0.0,32.0,64,0.00,,---,0.00,VWS V12.07,2013-08-24 15:36:00,
2013-08-24 08:37:00,57.6,45.5,29.69,ESE,104,0.0,32.0,64,0.00,,---,0.00,VWS V12.07,2013-08-24 15:37:00,
2013-08-24 08:39:00,57.8,45.7,29.69,ESE,102,0.0,32.0,64,0.00,,---,0.00,VWS V12.07,2013-08-24 15:39:00,
2013-08-24 08:41:00,58.3,45.8,29.69,SSE,151,0.0,32.0,63,0.00,,---,0.00,VWS V12.07,2013-08-24 15:41:00,
2013-08-24 08:42:00,58.4,46.3,29.69,SSE,151,0.0,32.0,64,0.00,,---,0.00,VWS V12.07,2013-08-24 15:42:00,
2013-08-24 08:43:00,58.6,46.5,29.69,SSE,151,2.0,32.0,64,0.00,,---,0.00,VWS V12.07,2013-08-24 15:43:00,
2013-08-24 08:44:00,58.7,45.7,29.69,SSE,154,1.0,32.0,62,0.00,,---,0.00,VWS V12.07,2013-08-24 15:44:00,
2013-08-24 08:47:00,59.0,46.0,29.68,SSE,155,1.0,32.0,62,0.00,,---,0.00,VWS V12.07,2013-08-24 15:47:00,
2013-08-24 08:48:00,59.0,46.0,29.68,SSE,155,1.0,32.0,62,0.00,,---,0.00,VWS V12.07,2013-08-24 15:48:00,
2013-08-24 08:49:00,59.2,46.2,29.68,SSE,155,0.0,32.0,62,0.00,,---,0.00,VWS V12.07,2013-08-24 15:49:00,
2013-08-24 08:52:00,59.6,46.6,29.68,SSE,155,0.0,32.0,62,0.00,,---,0.00,VWS V12.07,2013-08-24 15:52:00,
2013-08-24 08:54:00,60.1,45.7,29.68,SSE,155,0.0,32.0,59,0.00,,---,0.00,VWS V12.07,2013-08-24 15:54:00,
2013-08-24 08:57:00,60.7,46.3,29.68,SSE,155,3.0,32.0,59,0.00,,---,0.00,VWS V12.07,2013-08-24 15:57:00,
2013-08-24 08:59:00,60.9,46.0,29.68,SSE,155,0.0,32.0,58,0.00,,---,0.00,VWS V12.07,2013-08-24 15:59:00,
2013-08-24 09:00:00,61.0,45.7,29.67,SSE,155,2.0,32.0,57,0.00,,---,0.00,VWS V12.07,2013-08-24 16:00:00,
2013-08-24 09:02:00,61.3,46.0,29.67,SSE,167,5.0,32.0,57,0.00,,---,0.00,VWS V12.07,2013-08-24 16:02:00,
2013-08-24 09:04:00,61.3,45.0,29.67,South,179,2.0,32.0,55,0.00,,---,0.00,VWS V12.07,2013-08-24 16:04:00,
2013-08-24 09:06:00,61.3,43.5,29.67,South,184,1.0,32.0,52,0.00,,---,0.00,VWS V12.07,2013-08-24 16:06:00,
2013-08-24 09:08:00,61.6,43.3,29.67,South,182,2.0,32.0,51,0.00,,---,0.00,VWS V12.07,2013-08-24 16:08:00,
2013-08-24 09:10:00,61.6,43.3,29.67,South,174,4.0,32.0,51,0.00,,---,0.00,VWS V12.07,2013-08-24 16:10:00,
2013-08-24 09:11:00,61.8,43.5,29.67,South,175,3.0,32.0,51,0.00,,---,0.00,VWS V12.07,2013-08-24 16:11:00,
2013-08-24 09:13:00,62.0,43.7,29.67,South,175,0.0,32.0,51,0.00,,---,0.00,VWS V12.07,2013-08-24 16:13:00,
2013-08-24 09:15:00,62.3,43.4,29.70,South,176,3.0,32.0,50,0.00,,---,0.00,VWS V12.07,2013-08-24 16:15:00,
2013-08-24 09:16:00,62.4,44.0,29.70,South,178,3.0,32.0,51,0.00,,---,0.00,VWS V12.07,2013-08-24 16:16:00,
2013-08-24 09:18:00,62.7,44.3,29.70,South,179,2.0,32.0,51,0.00,,---,0.00,VWS V12.07,2013-08-24 16:18:00,
2013-08-24 09:20:00,63.1,43.7,29.70,South,178,6.0,32.0,49,0.00,,---,0.00,VWS V12.07,2013-08-24 16:20:00,
2013-08-24 09:21:00,63.1,42.0,29.70,South,181,3.0,32.0,46,0.00,,---,0.00,VWS V12.07,2013-08-24 16:21:00,
2013-08-24 09:23:00,63.4,43.9,29.70,South,182,2.0,32.0,49,0.00,,---,0.00,VWS V12.07,2013-08-24 16:23:00,
2013-08-24 09:25:00,63.7,43.7,29.70,South,181,3.0,32.0,48,0.00,,---,0.00,VWS V12.07,2013-08-24 16:25:00,
2013-08-24 09:26:00,63.5,44.5,29.70,South,181,3.0,32.0,50,0.00,,---,0.00,VWS V12.07,2013-08-24 16:26:00,
2013-08-24 09:27:00,63.7,44.7,29.70,South,181,2.0,32.0,50,0.00,,---,0.00,VWS V12.07,2013-08-24 16:27:00,
2013-08-24 09:28:00,63.7,44.2,29.70,South,182,2.0,32.0,49,0.00,,---,0.00,VWS V12.07,2013-08-24 16:28:00,
2013-08-24 09:30:00,63.9,45.4,29.69,South,178,2.0,32.0,51,0.00,,---,0.00,VWS V12.07,2013-08-24 16:30:00,
2013-08-24 09:32:00,63.7,44.2,29.69,South,186,3.0,32.0,49,0.00,,---,0.00,VWS V12.07,2013-08-24 16:32:00,
2013-08-24 09:33:00,63.9,43.3,29.69,South,191,5.0,32.0,47,0.00,,---,0.00,VWS V12.07,2013-08-24 16:33:00,
2013-08-24 09:34:00,63.9,43.3,29.69,South,188,6.0,32.0,47,0.00,,---,0.00,VWS V12.07,2013-08-24 16:34:00,
2013-08-24 09:35:00,63.7,42.5,29.69,South,186,3.0,32.0,46,0.00,,---,0.00,VWS V12.07,2013-08-24 16:35:00,
2013-08-24 09:36:00,63.7,42.5,29.69,South,186,2.0,32.0,46,0.00,,---,0.00,VWS V12.07,2013-08-24 16:36:00,
2013-08-24 09:37:00,63.9,43.3,29.69,South,188,4.0,32.0,47,0.00,,---,0.00,VWS V12.07,2013-08-24 16:37:00,
2013-08-24 09:39:00,63.9,42.7,29.69,South,169,2.0,32.0,46,0.00,,---,0.00,VWS V12.07,2013-08-24 16:39:00,
2013-08-24 09:41:00,63.9,42.2,29.69,South,185,6.0,32.0,45,0.00,,---,0.00,VWS V12.07,2013-08-24 16:41:00,
2013-08-24 09:42:00,63.9,41.6,29.69,South,185,1.0,32.0,44,0.00,,---,0.00,VWS V12.07,2013-08-24 16:42:00,
2013-08-24 09:44:00,64.0,42.8,29.69,South,185,0.0,32.0,46,0.00,,---,0.00,VWS V12.07,2013-08-24 16:44:00,
2013-08-24 09:45:00,64.3,42.5,29.69,South,185,5.0,32.0,45,0.00,,---,0.00,VWS V12.07,2013-08-24 16:45:00,
2013-08-24 09:46:00,64.3,41.9,29.69,South,184,3.0,32.0,44,0.00,,---,0.00,VWS V12.07,2013-08-24 16:46:00,
2013-08-24 09:47:00,64.5,42.1,29.69,South,182,2.0,32.0,44,0.00,,---,0.00,VWS V12.07,2013-08-24 16:47:00,
2013-08-24 09:49:00,64.5,40.3,29.69,SSE,165,5.0,32.0,41,0.00,,---,0.00,VWS V12.07,2013-08-24 16:49:00,
2013-08-24 09:50:00,64.7,41.7,29.69,South,185,6.0,32.0,43,0.00,,---,0.00,VWS V12.07,2013-08-24 16:50:00,
2013-08-24 09:51:00,64.7,41.7,29.69,South,172,5.0,32.0,43,0.00,,---,0.00,VWS V12.07,2013-08-24 16:51:00,
2013-08-24 09:53:00,65.0,40.8,29.69,South,175,6.0,32.0,41,0.00,,---,0.00,VWS V12.07,2013-08-24 16:53:00,
2013-08-24 09:54:00,65.0,40.8,29.69,South,174,0.0,32.0,41,0.00,,---,0.00,VWS V12.07,2013-08-24 16:54:00,
2013-08-24 09:55:00,65.2,41.5,29.69,South,175,2.0,32.0,42,0.00,,---,0.00,VWS V12.07,2013-08-24 16:55:00,
2013-08-24 09:56:00,65.2,42.2,29.69,SSE,168,5.0,32.0,43,0.00,,---,0.00,VWS V12.07,2013-08-24 16:56:00,
2013-08-24 09:57:00,65.2,41.5,29.69,South,175,7.0,32.0,42,0.00,,---,0.00,VWS V12.07,2013-08-24 16:57:00,
2013-08-24 09:58:00,65.3,42.8,29.69,South,185,5.0,32.0,44,0.00,,---,0.00,VWS V12.07,2013-08-24 16:58:00,
2013-08-24 10:00:00,65.5,41.2,29.67,South,174,7.0,32.0,41,0.00,,---,0.00,VWS V12.07,2013-08-24 17:00:00,
2013-08-24 10:01:00,65.6,40.7,29.67,SSW,192,4.0,32.0,40,0.00,,---,0.00,VWS V12.07,2013-08-24 17:01:00,
2013-08-24 10:02:00,65.6,41.3,29.67,SSE,167,7.0,32.0,41,0.00,,---,0.00,VWS V12.07,2013-08-24 17:02:00,
2013-08-24 10:03:00,65.8,41.5,29.67,SSE,168,5.0,32.0,41,0.00,,---,0.00,VWS V12.07,2013-08-24 17:03:00,
2013-08-24 10:05:00,66.3,41.9,29.67,SSW,208,0.0,32.0,41,0.00,,---,0.00,VWS V12.07,2013-08-24 17:05:00,
2013-08-24 10:06:00,66.3,41.9,29.67,SSW,208,0.0,32.0,41,0.00,,---,0.00,VWS V12.07,2013-08-24 17:06:00,
2013-08-24 10:07:00,66.6,42.8,29.67,SSW,198,3.0,32.0,42,0.00,,---,0.00,VWS V12.07,2013-08-24 17:07:00,
2013-08-24 10:08:00,66.6,42.2,29.67,SSW,198,2.0,32.0,41,0.00,,---,0.00,VWS V12.07,2013-08-24 17:08:00,
2013-08-24 10:11:00,66.9,43.1,29.67,SW,219,7.0,32.0,42,0.00,,---,0.00,VWS V12.07,2013-08-24 17:11:00,
2013-08-24 10:12:00,66.8,41.1,29.67,South,184,7.0,32.0,39,0.00,,---,0.00,VWS V12.07,2013-08-24 17:12:00,
2013-08-24 10:13:00,66.4,42.6,29.67,South,185,7.0,32.0,42,0.00,,---,0.00,VWS V12.07,2013-08-24 17:13:00,
2013-08-24 10:17:00,66.8,42.4,29.68,South,186,7.0,32.0,41,0.00,,---,0.00,VWS V12.07,2013-08-24 17:17:00,
2013-08-24 10:18:00,66.9,43.1,29.68,SE,140,2.0,32.0,42,0.00,,---,0.00,VWS V12.07,2013-08-24 17:18:00,
2013-08-24 10:19:00,67.1,42.6,29.68,SE,143,0.0,32.0,41,0.00,,---,0.00,VWS V12.07,2013-08-24 17:19:00,
2013-08-24 10:22:00,67.4,40.9,29.68,South,182,5.0,32.0,38,0.00,,---,0.00,VWS V12.07,2013-08-24 17:22:00,
2013-08-24 10:23:00,67.6,39.7,29.68,South,182,3.0,32.0,36,0.00,,---,0.00,VWS V12.07,2013-08-24 17:23:00,
2013-08-24 10:24:00,67.4,39.5,29.68,South,185,4.0,32.0,36,0.00,,---,0.00,VWS V12.07,2013-08-24 17:24:00,
2013-08-24 10:27:00,67.6,41.8,29.68,South,186,2.0,32.0,39,0.00,,---,0.00,VWS V12.07,2013-08-24 17:27:00,
2013-08-24 10:28:00,67.8,42.0,29.68,South,189,3.0,32.0,39,0.00,,---,0.00,VWS V12.07,2013-08-24 17:28:00,
2013-08-24 10:30:00,68.3,41.0,29.67,South,185,2.0,32.0,37,0.00,,---,0.00,VWS V12.07,2013-08-24 17:30:00,
2013-08-24 10:32:00,68.6,41.3,29.67,West,260,1.0,32.0,37,0.00,,---,0.00,VWS V12.07,2013-08-24 17:32:00,
2013-08-24 10:33:00,68.8,40.8,29.67,West,264,1.0,32.0,36,0.00,,---,0.00,VWS V12.07,2013-08-24 17:33:00,
2013-08-24 10:34:00,69.1,41.0,29.67,West,264,0.0,32.0,36,0.00,,---,0.00,VWS V12.07,2013-08-24 17:34:00,
2013-08-24 10:35:00,69.4,42.0,29.67,SW,219,2.0,32.0,37,0.00,,---,0.00,VWS V12.07,2013-08-24 17:35:00,
2013-08-24 10:37:00,69.6,41.5,29.67,South,189,4.0,32.0,36,0.00,,---,0.00,VWS V12.07,2013-08-24 17:37:00,
2013-08-24 10:38:00,69.4,40.6,29.67,SSW,202,6.0,32.0,35,0.00,,---,0.00,VWS V12.07,2013-08-24 17:38:00,
2013-08-24 10:39:00,69.4,41.3,29.67,SSE,162,2.0,32.0,36,0.00,,---,0.00,VWS V12.07,2013-08-24 17:39:00,
2013-08-24 10:40:00,69.4,42.0,29.67,SSE,168,1.0,32.0,37,0.00,,---,0.00,VWS V12.07,2013-08-24 17:40:00,
2013-08-24 10:43:00,68.9,41.6,29.67,South,178,6.0,32.0,37,0.00,,---,0.00,VWS V12.07,2013-08-24 17:43:00,
2013-08-24 10:44:00,68.9,42.3,29.67,South,181,3.0,32.0,38,0.00,,---,0.00,VWS V12.07,2013-08-24 17:44:00,
2013-08-24 10:46:00,68.9,43.0,29.67,SSW,209,7.0,32.0,39,0.00,,---,0.00,VWS V12.07,2013-08-24 17:46:00,
2013-08-24 10:48:00,68.8,41.5,29.67,South,186,4.0,32.0,37,0.00,,---,0.00,VWS V12.07,2013-08-24 17:48:00,
2013-08-24 10:49:00,68.9,42.3,29.67,South,185,2.0,32.0,38,0.00,,---,0.00,VWS V12.07,2013-08-24 17:49:00,
2013-08-24 10:50:00,69.1,42.5,29.67,South,186,2.0,32.0,38,0.00,,---,0.00,VWS V12.07,2013-08-24 17:50:00,
2013-08-24 10:51:00,69.3,41.9,29.67,South,188,0.0,32.0,37,0.00,,---,0.00,VWS V12.07,2013-08-24 17:51:00,
2013-08-24 10:53:00,69.8,40.9,29.67,South,186,7.0,32.0,35,0.00,,---,0.00,VWS V12.07,2013-08-24 17:53:00,
2013-08-24 10:54:00,69.8,42.4,29.67,South,176,5.0,32.0,37,0.00,,---,0.00,VWS V12.07,2013-08-24 17:54:00,
2013-08-24 10:55:00,69.9,41.8,29.67,South,191,7.0,32.0,36,0.00,,---,0.00,VWS V12.07,2013-08-24 17:55:00,
2013-08-24 10:56:00,69.4,41.3,29.67,SSW,196,8.0,32.0,36,0.00,,---,0.00,VWS V12.07,2013-08-24 17:56:00,
2013-08-24 10:59:00,69.6,42.2,29.67,South,178,0.0,32.0,37,0.00,,---,0.00,VWS V12.07,2013-08-24 17:59:00,
2013-08-24 11:00:00,69.6,41.5,29.66,South,178,0.0,32.0,36,0.00,,---,0.00,VWS V12.07,2013-08-24 18:00:00,
2013-08-24 11:01:00,69.9,41.8,29.66,South,179,2.0,32.0,36,0.00,,---,0.00,VWS V12.07,2013-08-24 18:01:00,
2013-08-24 11:04:00,71.1,42.8,29.66,SSW,209,1.0,32.0,36,0.00,,---,0.00,VWS V12.07,2013-08-24 18:04:00,
2013-08-24 11:05:00,71.3,43.0,29.66,WNW,294,4.0,32.0,36,0.00,,---,0.00,VWS V12.07,2013-08-24 18:05:00,
2013-08-24 11:06:00,71.3,43.0,29.66,WNW,294,1.0,32.0,36,0.00,,---,0.00,VWS V12.07,2013-08-24 18:06:00,
2013-08-24 11:07:00,71.5,42.4,29.66,SSW,200,2.0,32.0,35,0.00,,---,0.00,VWS V12.07,2013-08-24 18:07:00,
2013-08-24 11:10:00,71.8,42.7,29.66,South,186,6.0,32.0,35,0.00,,---,0.00,VWS V12.07,2013-08-24 18:10:00,
2013-08-24 11:12:00,72.1,43.0,29.66,NNW,332,0.0,32.0,35,0.00,,---,0.00,VWS V12.07,2013-08-24 18:12:00,
2013-08-24 11:15:00,72.7,43.5,29.66,SSE,168,0.0,32.0,35,0.00,,---,0.00,VWS V12.07,2013-08-24 18:15:00,
2013-08-24 11:16:00,72.8,42.8,29.66,SW,223,2.0,32.0,34,0.00,,---,0.00,VWS V12.07,2013-08-24 18:16:00,
2013-08-24 11:18:00,72.8,43.6,29.66,SSW,206,7.0,32.0,35,0.00,,---,0.00,VWS V12.07,2013-08-24 18:18:00,
2013-08-24 11:20:00,72.3,43.9,29.66,NNW,339,5.0,32.0,36,0.00,,---,0.00,VWS V12.07,2013-08-24 18:20:00,
2013-08-24 11:22:00,72.5,43.3,29.66,South,174,1.0,32.0,35,0.00,,---,0.00,VWS V12.07,2013-08-24 18:22:00,
2013-08-24 11:23:00,72.3,43.1,29.66,South,178,7.0,32.0,35,0.00,,---,0.00,VWS V12.07,2013-08-24 18:23:00,
2013-08-24 11:25:00,72.1,44.4,29.66,South,175,2.0,32.0,37,0.00,,---,0.00,VWS V12.07,2013-08-24 18:25:00,
2013-08-24 11:27:00,72.1,42.2,29.66,South,184,6.0,32.0,34,0.00,,---,0.00,VWS V12.07,2013-08-24 18:27:00,
2013-08-24 11:28:00,71.8,42.0,29.66,SE,141,6.0,32.0,34,0.00,,---,0.00,VWS V12.07,2013-08-24 18:28:00,
2013-08-24 11:29:00,71.8,43.4,29.66,South,186,7.0,32.0,36,0.00,,---,0.00,VWS V12.07,2013-08-24 18:29:00,
2013-08-24 11:31:00,71.8,44.2,29.65,SSW,212,2.0,32.0,37,0.00,,---,0.00,VWS V12.07,2013-08-24 18:31:00,
2013-08-24 11:33:00,72.3,43.9,29.65,South,184,7.0,32.0,36,0.00,,---,0.00,VWS V12.07,2013-08-24 18:33:00,
2013-08-24 11:34:00,71.8,42.7,29.65,SSW,203,11.0,32.0,35,0.00,,---,0.00,VWS V12.07,2013-08-24 18:34:00,
2013-08-24 11:36:00,71.6,44.0,29.65,South,186,6.0,32.0,37,0.00,,---,0.00,VWS V12.07,2013-08-24 18:36:00,
2013-08-24 11:38:00,72.0,43.6,29.65,NW,311,1.0,32.0,36,0.00,,---,0.00,VWS V12.07,2013-08-24 18:38:00,
2013-08-24 11:39:00,71.8,42.7,29.65,SSW,192,9.0,32.0,35,0.00,,---,0.00,VWS V12.07,2013-08-24 18:39:00,
2013-08-24 11:41:00,71.5,43.2,29.65,South,182,7.0,32.0,36,0.00,,---,0.00,VWS V12.07,2013-08-24 18:41:00,
2013-08-24 11:44:00,71.6,43.3,29.65,SSE,162,4.0,32.0,36,0.00,,---,0.00,VWS V12.07,2013-08-24 18:44:00,
2013-08-24 11:45:00,71.6,41.8,29.65,SSE,168,2.0,32.0,34,0.00,,---,0.00,VWS V12.07,2013-08-24 18:45:00,
2013-08-24 11:46:00,72.1,43.0,29.65,South,172,2.0,32.0,35,0.00,,---,0.00,VWS V12.07,2013-08-24 18:46:00,
2013-08-24 11:49:00,72.5,41.0,29.65,South,185,2.0,32.0,32,0.00,,---,0.00,VWS V12.07,2013-08-24 18:49:00,
2013-08-24 11:51:00,73.0,43.0,29.65,WNW,292,2.0,32.0,34,0.00,,---,0.00,VWS V12.07,2013-08-24 18:51:00,
2013-08-24 11:54:00,73.7,42.8,29.65,SSW,206,0.0,32.0,33,0.00,,---,0.00,VWS V12.07,2013-08-24 18:54:00,
2013-08-24 11:56:00,74.0,41.5,29.65,South,185,7.0,32.0,31,0.00,,---,0.00,VWS V12.07,2013-08-24 18:56:00,
2013-08-24 11:57:00,73.9,42.2,29.65,South,185,7.0,32.0,32,0.00,,---,0.00,VWS V12.07,2013-08-24 18:57:00,
2013-08-24 11:59:00,73.9,40.5,29.65,South,181,4.0,32.0,30,0.00,,---,0.00,VWS V12.07,2013-08-24 18:59:00,
2013-08-24 12:00:00,73.9,41.4,29.63,South,172,2.0,32.0,31,0.00,,---,0.00,VWS V12.07,2013-08-24 19:00:00,
2013-08-24 12:02:00,74.2,43.3,29.63,South,181,1.0,32.0,33,0.00,,---,0.00,VWS V12.07,2013-08-24 19:02:00,
2013-08-24 12:04:00,73.9,42.2,29.63,SSW,212,7.0,32.0,32,0.00,,---,0.00,VWS V12.07,2013-08-24 19:04:00,
2013-08-24 12:05:00,74.0,42.3,29.63,SSW,192,12.0,32.0,32,0.00,,---,0.00,VWS V12.07,2013-08-24 19:05:00,
2013-08-24 12:07:00,73.7,42.8,29.63,South,172,2.0,32.0,33,0.00,,---,0.00,VWS V12.07,2013-08-24 19:07:00,
2013-08-24 12:08:00,73.7,42.0,29.63,NNW,330,2.0,32.0,32,0.00,,---,0.00,VWS V12.07,2013-08-24 19:08:00,
2013-08-24 12:10:00,73.7,42.0,29.63,South,172,8.0,32.0,32,0.00,,---,0.00,VWS V12.07,2013-08-24 19:10:00,
2013-08-24 12:13:00,73.7,42.0,29.63,SSW,193,11.0,32.0,32,0.00,,---,0.00,VWS V12.07,2013-08-24 19:13:00,
2013-08-24 12:15:00,73.5,42.7,29.64,SSW,198,8.0,32.0,33,0.00,,---,0.00,VWS V12.07,2013-08-24 19:15:00,
2013-08-24 12:16:00,73.3,42.5,29.64,South,179,10.0,32.0,33,0.00,,---,0.00,VWS V12.07,2013-08-24 19:16:00,
2013-08-24 12:18:00,73.3,42.5,29.64,South,185,12.0,32.0,33,0.00,,---,0.00,VWS V12.07,2013-08-24 19:18:00,
2013-08-24 12:20:00,73.9,43.0,29.64,South,188,1.0,32.0,33,0.00,,---,0.00,VWS V12.07,2013-08-24 19:20:00,
2013-08-24 12:21:00,74.0,43.1,29.64,South,188,0.0,32.0,33,0.00,,---,0.00,VWS V12.07,2013-08-24 19:21:00,
2013-08-24 12:24:00,74.6,41.2,29.64,South,184,8.0,32.0,30,0.00,,---,0.00,VWS V12.07,2013-08-24 19:24:00,
2013-08-24 12:25:00,74.7,42.1,29.64,SSW,199,5.0,32.0,31,0.00,,---,0.00,VWS V12.07,2013-08-24 19:25:00,
2013-08-24 12:26:00,74.7,42.1,29.64,South,181,8.0,32.0,31,0.00,,---,0.00,VWS V12.07,2013-08-24 19:26:00,
2013-08-24 12:29:00,75.4,42.7,29.64,SSW,202,2.0,32.0,31,0.00,,---,0.00,VWS V12.07,2013-08-24 19:29:00,
2013-08-24 12:31:00,75.4,41.8,29.63,South,182,9.0,32.0,30,0.00,,---,0.00,VWS V12.07,2013-08-24 19:31:00,
2013-08-24 12:34:00,75.6,42.9,29.63,South,181,0.0,32.0,31,0.00,,---,0.00,VWS V12.07,2013-08-24 19:34:00,
2013-08-24 12:36:00,76.1,43.3,29.63,South,185,4.0,32.0,31,0.00,,---,0.00,VWS V12.07,2013-08-24 19:36:00,
2013-08-24 12:37:00,76.1,43.3,29.63,NW,320,1.0,32.0,31,0.00,,---,0.00,VWS V12.07,2013-08-24 19:37:00,
2013-08-24 12:39:00,75.6,42.0,29.63,South,175,10.0,32.0,30,0.00,,---,0.00,VWS V12.07,2013-08-24 19:39:00,
2013-08-24 12:40:00,75.6,42.9,29.63,South,186,7.0,32.0,31,0.00,,---,0.00,VWS V12.07,2013-08-24 19:40:00,
2013-08-24 12:41:00,75.3,41.8,29.63,South,191,10.0,32.0,30,0.00,,---,0.00,VWS V12.07,2013-08-24 19:41:00,
2013-08-24 12:42:00,75.1,41.6,29.63,South,191,10.0,32.0,30,0.00,,---,0.00,VWS V12.07,2013-08-24 19:42:00,
2013-08-24 12:44:00,74.9,41.4,29.62,West,265,2.0,32.0,30,0.00,,---,0.00,VWS V12.07,2013-08-24 19:44:00,
2013-08-24 12:46:00,75.1,40.7,29.62,SSW,193,6.0,32.0,29,0.00,,---,0.00,VWS V12.07,2013-08-24 19:46:00,
2013-08-24 12:47:00,75.4,41.0,29.62,SSW,196,4.0,32.0,29,0.00,,---,0.00,VWS V12.07,2013-08-24 19:47:00,
2013-08-24 12:50:00,75.8,39.5,29.62,South,176,10.0,32.0,27,0.00,,---,0.00,VWS V12.07,2013-08-24 19:50:00,
2013-08-24 12:51:00,75.8,43.9,29.62,SSW,206,7.0,32.0,32,0.00,,---,0.00,VWS V12.07,2013-08-24 19:51:00,
2013-08-24 12:52:00,75.6,42.0,29.62,South,172,1.0,32.0,30,0.00,,---,0.00,VWS V12.07,2013-08-24 19:52:00,
2013-08-24 12:55:00,76.8,43.0,29.62,NW,319,2.0,32.0,30,0.00,,---,0.00,VWS V12.07,2013-08-24 19:55:00,
2013-08-24 12:56:00,77.0,42.3,29.62,South,171,7.0,32.0,29,0.00,,---,0.00,VWS V12.07,2013-08-24 19:56:00,
2013-08-24 12:57:00,77.0,43.2,29.62,South,169,12.0,32.0,30,0.00,,---,0.00,VWS V12.07,2013-08-24 19:57:00,
2013-08-24 12:58:00,76.5,42.8,29.62,SSW,198,7.0,32.0,30,0.00,,---,0.00,VWS V12.07,2013-08-24 19:58:00,
2013-08-24 13:01:00,76.8,43.0,29.61,SSW,206,5.0,32.0,30,0.00,,---,0.00,VWS V12.07,2013-08-24 20:01:00,
2013-08-24 13:02:00,77.0,43.2,29.61,SW,233,2.0,32.0,30,0.00,,---,0.00,VWS V12.07,2013-08-24 20:02:00,
2013-08-24 13:03:00,77.2,43.4,29.61,South,188,3.0,32.0,30,0.00,,---,0.00,VWS V12.07,2013-08-24 20:03:00,
2013-08-24 13:07:00,77.4,43.6,29.61,South,178,2.0,32.0,30,0.00,,---,0.00,VWS V12.07,2013-08-24 20:07:00,
2013-08-24 13:08:00,77.6,43.7,29.61,North,359,0.0,32.0,30,0.00,,---,0.00,VWS V12.07,2013-08-24 20:08:00,
2013-08-24 13:12:00,77.7,44.7,29.61,NW,306,1.0,32.0,31,0.00,,---,0.00,VWS V12.07,2013-08-24 20:12:00,
2013-08-24 13:13:00,77.9,44.0,29.61,NNW,344,0.0,32.0,30,0.00,,---,0.00,VWS V12.07,2013-08-24 20:13:00,
2013-08-24 13:14:00,78.1,43.3,29.61,WNW,295,4.0,32.0,29,0.00,,---,0.00,VWS V12.07,2013-08-24 20:14:00,
2013-08-24 13:17:00,78.1,43.3,29.60,South,181,7.0,32.0,29,0.00,,---,0.00,VWS V12.07,2013-08-24 20:17:00,
2013-08-24 13:18:00,77.9,44.0,29.60,South,181,2.0,32.0,30,0.00,,---,0.00,VWS V12.07,2013-08-24 20:18:00,
2013-08-24 13:19:00,78.1,45.0,29.60,SSE,148,1.0,32.0,31,0.00,,---,0.00,VWS V12.07,2013-08-24 20:19:00,
2013-08-24 13:22:00,77.9,44.0,29.60,SSW,200,6.0,32.0,30,0.00,,---,0.00,VWS V12.07,2013-08-24 20:22:00,
2013-08-24 13:24:00,77.7,44.7,29.60,SSW,195,6.0,32.0,31,0.00,,---,0.00,VWS V12.07,2013-08-24 20:24:00,
2013-08-24 13:28:00,78.1,44.2,29.60,South,184,10.0,32.0,30,0.00,,---,0.00,VWS V12.07,2013-08-24 20:28:00,
2013-08-24 13:29:00,77.9,44.9,29.60,South,185,0.0,32.0,31,0.00,,---,0.00,VWS V12.07,2013-08-24 20:29:00,
2013-08-24 13:33:00,78.3,43.5,29.60,South,185,6.0,32.0,29,0.00,,---,0.00,VWS V12.07,2013-08-24 20:33:00,
2013-08-24 13:34:00,78.3,44.3,29.60,South,184,3.0,32.0,30,0.00,,---,0.00,VWS V12.07,2013-08-24 20:34:00,
2013-08-24 13:35:00,78.5,44.5,29.60,NW,319,7.0,32.0,30,0.00,,---,0.00,VWS V12.07,2013-08-24 20:35:00,
2013-08-24 13:38:00,79.0,45.0,29.60,NNW,333,4.0,32.0,30,0.00,,---,0.00,VWS V12.07,2013-08-24 20:38:00,
2013-08-24 13:40:00,78.5,44.5,29.60,South,191,7.0,32.0,30,0.00,,---,0.00,VWS V12.07,2013-08-24 20:40:00,
2013-08-24 13:42:00,78.3,44.3,29.60,SSW,205,7.0,32.0,30,0.00,,---,0.00,VWS V12.07,2013-08-24 20:42:00,
2013-08-24 13:43:00,78.1,44.2,29.60,SSW,198,2.0,32.0,30,0.00,,---,0.00,VWS V12.07,2013-08-24 20:43:00,
2013-08-24 13:45:00,78.5,43.6,29.60,South,188,7.0,32.0,29,0.00,,---,0.00,VWS V12.07,2013-08-24 20:45:00,
2013-08-24 13:47:00,78.5,43.6,29.60,WSW,239,2.0,32.0,29,0.00,,---,0.00,VWS V12.07,2013-08-24 20:47:00,
2013-08-24 13:48:00,78.3,43.5,29.60,SSW,205,6.0,32.0,29,0.00,,---,0.00,VWS V12.07,2013-08-24 20:48:00,
2013-08-24 13:50:00,77.9,43.1,29.60,South,182,0.0,32.0,29,0.00,,---,0.00,VWS V12.07,2013-08-24 20:50:00,
2013-08-24 13:51:00,77.9,43.1,29.60,NW,325,5.0,32.0,29,0.00,,---,0.00,VWS V12.07,2013-08-24 20:51:00,
2013-08-24 13:52:00,78.1,43.3,29.60,NW,326,0.0,32.0,29,0.00,,---,0.00,VWS V12.07,2013-08-24 20:52:00,
2013-08-24 13:54:00,78.1,44.2,29.60,NW,326,0.0,32.0,30,0.00,,---,0.00,VWS V12.07,2013-08-24 20:54:00,
2013-08-24 13:55:00,78.1,44.2,29.60,NW,326,0.0,32.0,30,0.00,,---,0.00,VWS V12.07,2013-08-24 20:55:00,
2013-08-24 13:56:00,78.1,44.2,29.60,NW,326,0.0,32.0,30,0.00,,---,0.00,VWS V12.07,2013-08-24 20:56:00,
2013-08-24 13:57:00,77.7,42.9,29.60,South,176,8.0,32.0,29,0.00,,---,0.00,VWS V12.07,2013-08-24 20:57:00,
2013-08-24 13:59:00,77.2,44.2,29.60,South,171,5.0,32.0,31,0.00,,---,0.00,VWS V12.07,2013-08-24 20:59:00,
2013-08-24 14:01:00,76.7,43.0,29.61,South,186,5.0,32.0,30,0.00,,---,0.00,VWS V12.07,2013-08-24 21:01:00,
2013-08-24 14:02:00,76.1,42.5,29.61,SSW,200,2.0,32.0,30,0.00,,---,0.00,VWS V12.07,2013-08-24 21:02:00,
2013-08-24 14:03:00,75.8,43.9,29.61,South,178,7.0,32.0,32,0.00,,---,0.00,VWS V12.07,2013-08-24 21:03:00,
2013-08-24 14:04:00,75.6,42.9,29.61,South,188,2.0,32.0,31,0.00,,---,0.00,VWS V12.07,2013-08-24 21:04:00,
2013-08-24 14:06:00,75.4,41.8,29.61,South,191,2.0,32.0,30,0.00,,---,0.00,VWS V12.07,2013-08-24 21:06:00,
2013-08-24 14:07:00,75.4,42.7,29.61,West,274,0.0,32.0,31,0.00,,---,0.00,VWS V12.07,2013-08-24 21:07:00,
2013-08-24 14:08:00,75.4,42.7,29.61,South,175,7.0,32.0,31,0.00,,---,0.00,VWS V12.07,2013-08-24 21:08:00,
2013-08-24 14:09:00,75.4,42.7,29.61,SSW,193,2.0,32.0,31,0.00,,---,0.00,VWS V12.07,2013-08-24 21:09:00,
2013-08-24 14:11:00,75.6,42.0,29.61,NW,308,2.0,32.0,30,0.00,,---,0.00,VWS V12.07,2013-08-24 21:11:00,
2013-08-24 14:13:00,75.8,43.0,29.61,NNW,344,0.0,32.0,31,0.00,,---,0.00,VWS V12.07,2013-08-24 21:13:00,
2013-08-24 14:16:00,76.0,43.2,29.63,NNW,328,3.0,32.0,31,0.00,,---,0.00,VWS V12.07,2013-08-24 21:16:00,
2013-08-24 14:17:00,76.1,41.6,29.63,North,352,0.0,32.0,29,0.00,,---,0.00,VWS V12.07,2013-08-24 21:17:00,
2013-08-24 14:18:00,76.1,43.3,29.63,North,359,5.0,32.0,31,0.00,,---,0.00,VWS V12.07,2013-08-24 21:18:00,
2013-08-24 14:19:00,76.3,43.5,29.63,North,356,0.0,32.0,31,0.00,,---,0.00,VWS V12.07,2013-08-24 21:19:00,
2013-08-24 14:21:00,76.3,44.3,29.63,North,356,2.0,32.0,32,0.00,,---,0.00,VWS V12.07,2013-08-24 21:21:00,
2013-08-24 14:22:00,76.0,42.4,29.63,NNE,14,2.0,32.0,30,0.00,,---,0.00,VWS V12.07,2013-08-24 21:22:00,
2013-08-24 14:23:00,76.0,43.2,29.63,NNE,13,0.0,32.0,31,0.00,,---,0.00,VWS V12.07,2013-08-24 21:23:00,
2013-08-24 14:24:00,76.0,44.0,29.63,NNE,13,1.0,32.0,32,0.00,,---,0.00,VWS V12.07,2013-08-24 21:24:00,
2013-08-24 14:26:00,76.0,44.0,29.63,North,7,2.0,32.0,32,0.00,,---,0.00,VWS V12.07,2013-08-24 21:26:00,
2013-08-24 14:27:00,76.0,44.0,29.63,North,7,0.0,32.0,32,0.00,,---,0.00,VWS V12.07,2013-08-24 21:27:00,
2013-08-24 14:28:00,76.0,45.6,29.63,NW,304,2.0,32.0,34,0.00,,---,0.00,VWS V12.07,2013-08-24 21:28:00,
2013-08-24 14:31:00,75.6,45.3,29.62,WNW,301,0.0,32.0,34,0.00,,---,0.00,VWS V12.07,2013-08-24 21:31:00,
2013-08-24 14:32:00,75.6,44.5,29.62,WNW,301,0.0,32.0,33,0.00,,---,0.00,VWS V12.07,2013-08-24 21:32:00,
2013-08-24 14:33:00,75.4,43.5,29.62,WNW,299,5.0,32.0,32,0.00,,---,0.00,VWS V12.07,2013-08-24 21:33:00,
2013-08-24 14:36:00,75.3,44.2,29.62,WNW,301,0.0,32.0,33,0.00,,---,0.00,VWS V12.07,2013-08-24 21:36:00,
2013-08-24 14:37:00,75.3,44.2,29.62,NW,316,0.0,32.0,33,0.00,,---,0.00,VWS V12.07,2013-08-24 21:37:00,
2013-08-24 14:38:00,75.3,45.0,29.62,NW,316,0.0,32.0,34,0.00,,---,0.00,VWS V12.07,2013-08-24 21:38:00,
2013-08-24 14:41:00,75.3,44.2,29.62,NW,320,0.0,32.0,33,0.00,,---,0.00,VWS V12.07,2013-08-24 21:41:00,
2013-08-24 14:42:00,75.3,44.2,29.62,NW,320,1.0,32.0,33,0.00,,---,0.00,VWS V12.07,2013-08-24 21:42:00,
2013-08-24 14:43:00,75.3,45.0,29.62,NW,320,0.0,32.0,34,0.00,,---,0.00,VWS V12.07,2013-08-24 21:43:00,
2013-08-24 14:44:00,75.3,44.2,29.62,NW,320,0.0,32.0,33,0.00,,---,0.00,VWS V12.07,2013-08-24 21:44:00,
2013-08-24 14:46:00,75.4,44.3,29.63,NW,322,0.0,32.0,33,0.00,,---,0.00,VWS V12.07,2013-08-24 21:46:00,
2013-08-24 14:47:00,75.4,44.3,29.63,NW,322,0.0,32.0,33,0.00,,---,0.00,VWS V12.07,2013-08-24 21:47:00,
2013-08-24 14:48:00,75.4,44.3,29.63,NW,322,0.0,32.0,33,0.00,,---,0.00,VWS V12.07,2013-08-24 21:48:00,
2013-08-24 14:49:00,75.6,44.5,29.63,NW,322,0.0,32.0,33,0.00,,---,0.00,VWS V12.07,2013-08-24 21:49:00,
2013-08-24 14:52:00,75.8,43.9,29.63,North,4,1.0,32.0,32,0.00,,---,0.00,VWS V12.07,2013-08-24 21:52:00,
2013-08-24 14:54:00,75.6,43.7,29.63,NW,313,9.0,32.0,32,0.00,,---,0.00,VWS V12.07,2013-08-24 21:54:00,
2013-08-24 14:57:00,75.6,44.5,29.63,NW,316,0.0,32.0,33,0.00,,---,0.00,VWS V12.07,2013-08-24 21:57:00,
2013-08-24 14:59:00,75.6,43.7,29.63,NW,318,2.0,32.0,32,0.00,,---,0.00,VWS V12.07,2013-08-24 21:59:00,
2013-08-24 15:01:00,75.4,43.5,29.62,NNW,332,0.0,32.0,32,0.00,,---,0.00,VWS V12.07,2013-08-24 22:01:00,
2013-08-24 15:02:00,75.4,44.3,29.62,NNW,342,3.0,32.0,33,0.00,,---,0.00,VWS V12.07,2013-08-24 22:02:00,
2013-08-24 15:04:00,75.4,43.5,29.62,NNW,343,0.0,32.0,32,0.00,,---,0.00,VWS V12.07,2013-08-24 22:04:00,
2013-08-24 15:07:00,75.4,44.3,29.62,NNW,342,0.0,32.0,33,0.00,,---,0.00,VWS V12.07,2013-08-24 22:07:00,
2013-08-24 15:08:00,75.4,43.5,29.62,NNW,342,0.0,32.0,32,0.00,,---,0.00,VWS V12.07,2013-08-24 22:08:00,
2013-08-24 15:10:00,75.4,43.5,29.62,NNW,340,0.0,32.0,32,0.00,,---,0.00,VWS V12.07,2013-08-24 22:10:00,
2013-08-24 15:12:00,75.4,42.7,29.62,NNW,342,0.0,32.0,31,0.00,,---,0.00,VWS V12.07,2013-08-24 22:12:00,
2013-08-24 15:14:00,75.3,44.2,29.62,NNW,339,1.0,32.0,33,0.00,,---,0.00,VWS V12.07,2013-08-24 22:14:00,
2013-08-24 15:15:00,75.4,43.5,29.63,NNW,339,0.0,32.0,32,0.00,,---,0.00,VWS V12.07,2013-08-24 22:15:00,
2013-08-24 15:17:00,75.4,43.5,29.63,NNW,339,0.0,32.0,32,0.00,,---,0.00,VWS V12.07,2013-08-24 22:17:00,
2013-08-24 15:19:00,75.4,43.5,29.63,NNW,339,0.0,32.0,32,0.00,,---,0.00,VWS V12.07,2013-08-24 22:19:00,
2013-08-24 15:20:00,75.6,43.7,29.63,NNW,339,1.0,32.0,32,0.00,,---,0.00,VWS V12.07,2013-08-24 22:20:00,
2013-08-24 15:21:00,75.6,43.7,29.63,NNW,339,0.0,32.0,32,0.00,,---,0.00,VWS V12.07,2013-08-24 22:21:00,
2013-08-24 15:22:00,75.6,42.9,29.63,NNW,339,0.0,32.0,31,0.00,,---,0.00,VWS V12.07,2013-08-24 22:22:00,
2013-08-24 15:23:00,75.6,43.7,29.63,NNW,339,0.0,32.0,32,0.00,,---,0.00,VWS V12.07,2013-08-24 22:23:00,
2013-08-24 15:24:00,75.6,43.7,29.63,NNW,339,0.0,32.0,32,0.00,,---,0.00,VWS V12.07,2013-08-24 22:24:00,
2013-08-24 15:25:00,75.6,44.5,29.63,NNW,339,0.0,32.0,33,0.00,,---,0.00,VWS V12.07,2013-08-24 22:25:00,
2013-08-24 15:26:00,75.6,44.5,29.63,NNW,339,0.0,32.0,33,0.00,,---,0.00,VWS V12.07,2013-08-24 22:26:00,
2013-08-24 15:27:00,75.6,43.7,29.63,NNW,339,0.0,32.0,32,0.00,,---,0.00,VWS V12.07,2013-08-24 22:27:00,
2013-08-24 15:28:00,75.6,43.7,29.63,NNW,339,0.0,32.0,32,0.00,,---,0.00,VWS V12.07,2013-08-24 22:28:00,
2013-08-24 15:29:00,75.6,43.7,29.63,NNW,339,0.0,32.0,32,0.00,,---,0.00,VWS V12.07,2013-08-24 22:29:00,
2013-08-24 15:31:00,75.4,43.5,29.62,NW,315,0.0,32.0,32,0.00,,---,0.00,VWS V12.07,2013-08-24 22:31:00,
2013-08-24 15:33:00,75.6,43.7,29.62,NW,316,0.0,32.0,32,0.00,,---,0.00,VWS V12.07,2013-08-24 22:33:00,
2013-08-24 15:34:00,75.4,43.5,29.62,NNW,339,0.0,32.0,32,0.00,,---,0.00,VWS V12.07,2013-08-24 22:34:00,
2013-08-24 15:36:00,75.4,43.5,29.62,NW,326,2.0,32.0,32,0.00,,---,0.00,VWS V12.07,2013-08-24 22:36:00,
2013-08-24 15:37:00,75.4,43.5,29.62,NW,326,0.0,32.0,32,0.00,,---,0.00,VWS V12.07,2013-08-24 22:37:00,
2013-08-24 15:38:00,75.4,44.3,29.62,NW,326,0.0,32.0,33,0.00,,---,0.00,VWS V12.07,2013-08-24 22:38:00,
2013-08-24 15:39:00,75.6,43.7,29.62,NW,326,0.0,32.0,32,0.00,,---,0.00,VWS V12.07,2013-08-24 22:39:00,
2013-08-24 15:41:00,75.6,43.7,29.62,NW,326,0.0,32.0,32,0.00,,---,0.00,VWS V12.07,2013-08-24 22:41:00,
2013-08-24 15:42:00,75.8,43.9,29.62,NW,326,0.0,32.0,32,0.00,,---,0.00,VWS V12.07,2013-08-24 22:42:00,
2013-08-24 15:43:00,75.8,43.9,29.62,NW,326,0.0,32.0,32,0.00,,---,0.00,VWS V12.07,2013-08-24 22:43:00,
2013-08-24 15:44:00,75.8,43.9,29.62,NW,304,1.0,32.0,32,0.00,,---,0.00,VWS V12.07,2013-08-24 22:44:00,
2013-08-24 15:45:00,75.8,43.0,29.62,NW,304,0.0,32.0,31,0.00,,---,0.00,VWS V12.07,2013-08-24 22:45:00,
2013-08-24 15:46:00,75.8,43.9,29.62,NW,304,1.0,32.0,32,0.00,,---,0.00,VWS V12.07,2013-08-24 22:46:00,
2013-08-24 15:47:00,75.8,43.9,29.62,WNW,285,0.0,32.0,32,0.00,,---,0.00,VWS V12.07,2013-08-24 22:47:00,
2013-08-24 15:48:00,75.8,43.9,29.62,WNW,287,3.0,32.0,32,0.00,,---,0.00,VWS V12.07,2013-08-24 22:48:00,
2013-08-24 15:49:00,75.6,43.7,29.62,WNW,287,0.0,32.0,32,0.00,,---,0.00,VWS V12.07,2013-08-24 22:49:00,
2013-08-24 15:50:00,75.6,43.7,29.62,NNE,21,0.0,32.0,32,0.00,,---,0.00,VWS V12.07,2013-08-24 22:50:00,
2013-08-24 15:51:00,75.6,43.7,29.62,WNW,302,0.0,32.0,32,0.00,,---,0.00,VWS V12.07,2013-08-24 22:51:00,
2013-08-24 15:52:00,75.6,43.7,29.62,WNW,302,6.0,32.0,32,0.00,,---,0.00,VWS V12.07,2013-08-24 22:52:00,
2013-08-24 15:53:00,75.4,44.3,29.62,NNW,333,3.0,32.0,33,0.00,,---,0.00,VWS V12.07,2013-08-24 22:53:00,
2013-08-24 15:54:00,75.4,44.3,29.62,NNW,333,1.0,32.0,33,0.00,,---,0.00,VWS V12.07,2013-08-24 22:54:00,
2013-08-24 15:55:00,75.4,44.3,29.62,NNW,335,2.0,32.0,33,0.00,,---,0.00,VWS V12.07,2013-08-24 22:55:00,
2013-08-24 15:56:00,75.6,42.9,29.62,NNW,336,3.0,32.0,31,0.00,,---,0.00,VWS V12.07,2013-08-24 22:56:00,
2013-08-24 15:58:00,75.6,43.7,29.62,NNW,333,0.0,32.0,32,0.00,,---,0.00,VWS V12.07,2013-08-24 22:58:00,
2013-08-24 15:59:00,75.6,43.7,29.62,NNW,335,2.0,32.0,32,0.00,,---,0.00,VWS V12.07,2013-08-24 22:59:00,
2013-08-24 16:00:00,75.8,43.9,29.61,NNW,335,0.0,32.0,32,0.00,,---,0.00,VWS V12.07,2013-08-24 23:00:00,
2013-08-24 16:02:00,76.0,45.6,29.61,NNW,332,5.0,32.0,34,0.00,,---,0.00,VWS V12.07,2013-08-24 23:02:00,
2013-08-24 16:04:00,76.1,44.1,29.61,North,359,3.0,32.0,32,0.00,,---,0.00,VWS V12.07,2013-08-24 23:04:00,
2013-08-24 16:05:00,76.3,44.3,29.61,North,10,5.0,32.0,32,0.00,,---,0.00,VWS V12.07,2013-08-24 23:05:00,
2013-08-24 16:07:00,76.3,43.5,29.61,NNE,16,0.0,32.0,31,0.00,,---,0.00,VWS V12.07,2013-08-24 23:07:00,
2013-08-24 16:09:00,76.5,44.5,29.61,NNE,16,2.0,32.0,32,0.00,,---,0.00,VWS V12.07,2013-08-24 23:09:00,
2013-08-24 16:10:00,76.7,44.7,29.61,NNE,17,0.0,32.0,32,0.00,,---,0.00,VWS V12.07,2013-08-24 23:10:00,
2013-08-24 16:11:00,76.7,43.8,29.61,North,0,6.0,32.0,31,0.00,,---,0.00,VWS V12.07,2013-08-24 23:11:00,
2013-08-24 16:13:00,76.7,43.0,29.61,NW,319,1.0,32.0,30,0.00,,---,0.00,VWS V12.07,2013-08-24 23:13:00,
2013-08-24 16:15:00,76.7,43.8,29.62,NNW,328,1.0,32.0,31,0.00,,---,0.00,VWS V12.07,2013-08-24 23:15:00,
2013-08-24 16:16:00,76.5,43.7,29.62,North,0,0.0,32.0,31,0.00,,---,0.00,VWS V12.07,2013-08-24 23:16:00,
2013-08-24 16:18:00,76.3,43.5,29.62,WNW,301,1.0,32.0,31,0.00,,---,0.00,VWS V12.07,2013-08-24 23:18:00,
2013-08-24 16:20:00,76.3,43.5,29.62,NNE,13,5.0,32.0,31,0.00,,---,0.00,VWS V12.07,2013-08-24 23:20:00,
2013-08-24 16:21:00,76.3,43.5,29.62,NNE,13,0.0,32.0,31,0.00,,---,0.00,VWS V12.07,2013-08-24 23:21:00,
2013-08-24 16:22:00,76.3,43.5,29.62,North,11,5.0,32.0,31,0.00,,---,0.00,VWS V12.07,2013-08-24 23:22:00,
2013-08-24 16:24:00,76.1,43.3,29.62,North,356,1.0,32.0,31,0.00,,---,0.00,VWS V12.07,2013-08-24 23:24:00,
2013-08-24 16:25:00,76.1,42.5,29.62,North,3,0.0,32.0,30,0.00,,---,0.00,VWS V12.07,2013-08-24 23:25:00,
2013-08-24 16:26:00,76.1,43.3,29.62,North,1,0.0,32.0,31,0.00,,---,0.00,VWS V12.07,2013-08-24 23:26:00,
2013-08-24 16:27:00,76.1,43.3,29.62,North,356,0.0,32.0,31,0.00,,---,0.00,VWS V12.07,2013-08-24 23:27:00,
2013-08-24 16:29:00,76.0,43.2,29.62,NW,322,0.0,32.0,31,0.00,,---,0.00,VWS V12.07,2013-08-24 23:29:00,
2013-08-24 16:30:00,76.0,43.2,29.62,North,359,5.0,32.0,31,0.00,,---,0.00,VWS V12.07,2013-08-24 23:30:00,
2013-08-24 16:31:00,76.0,44.0,29.62,North,359,2.0,32.0,32,0.00,,---,0.00,VWS V12.07,2013-08-24 23:31:00,
2013-08-24 16:33:00,76.0,43.2,29.62,North,352,0.0,32.0,31,0.00,,---,0.00,VWS V12.07,2013-08-24 23:33:00,
2013-08-24 16:34:00,75.8,43.0,29.62,North,353,0.0,32.0,31,0.00,,---,0.00,VWS V12.07,2013-08-24 23:34:00,
2013-08-24 16:35:00,75.8,43.0,29.62,North,354,3.0,32.0,31,0.00,,---,0.00,VWS V12.07,2013-08-24 23:35:00,
2013-08-24 16:36:00,75.6,43.7,29.62,North,353,3.0,32.0,32,0.00,,---,0.00,VWS V12.07,2013-08-24 23:36:00,
2013-08-24 16:37:00,75.6,43.7,29.62,North,353,1.0,32.0,32,0.00,,---,0.00,VWS V12.07,2013-08-24 23:37:00,
2013-08-24 16:38:00,75.4,43.5,29.62,North,359,0.0,32.0,32,0.00,,---,0.00,VWS V12.07,2013-08-24 23:38:00,
2013-08-24 16:39:00,75.4,43.5,29.62,North,359,0.0,32.0,32,0.00,,---,0.00,VWS V12.07,2013-08-24 23:39:00,
2013-08-24 16:40:00,75.4,43.5,29.62,North,359,0.0,32.0,32,0.00,,---,0.00,VWS V12.07,2013-08-24 23:40:00,
2013-08-24 16:42:00,75.4,43.5,29.62,North,359,0.0,32.0,32,0.00,,---,0.00,VWS V12.07,2013-08-24 23:42:00,
2013-08-24 16:43:00,75.4,43.5,29.62,North,359,0.0,32.0,32,0.00,,---,0.00,VWS V12.07,2013-08-24 23:43:00,
2013-08-24 16:45:00,75.3,43.4,29.64,North,359,2.0,32.0,32,0.00,,---,0.00,VWS V12.07,2013-08-24 23:45:00,
2013-08-24 16:47:00,75.1,43.3,29.64,North,359,0.0,32.0,32,0.00,,---,0.00,VWS V12.07,2013-08-24 23:47:00,
2013-08-24 16:48:00,75.1,43.3,29.64,North,359,0.0,32.0,32,0.00,,---,0.00,VWS V12.07,2013-08-24 23:48:00,
2013-08-24 16:50:00,74.9,43.1,29.64,North,359,0.0,32.0,32,0.00,,---,0.00,VWS V12.07,2013-08-24 23:50:00,
2013-08-24 16:51:00,74.7,42.9,29.64,North,359,0.0,32.0,32,0.00,,---,0.00,VWS V12.07,2013-08-24 23:51:00,
2013-08-24 16:52:00,74.7,42.9,29.64,North,359,0.0,32.0,32,0.00,,---,0.00,VWS V12.07,2013-08-24 23:52:00,
2013-08-24 16:53:00,74.7,42.9,29.64,North,359,0.0,32.0,32,0.00,,---,0.00,VWS V12.07,2013-08-24 23:53:00,
2013-08-24 16:54:00,74.6,42.8,29.64,North,359,0.0,32.0,32,0.00,,---,0.00,VWS V12.07,2013-08-24 23:54:00,
2013-08-24 16:55:00,74.6,42.8,29.64,North,359,0.0,32.0,32,0.00,,---,0.00,VWS V12.07,2013-08-24 23:55:00,
2013-08-24 16:56:00,74.6,43.6,29.64,North,359,0.0,32.0,33,0.00,,---,0.00,VWS V12.07,2013-08-24 23:56:00,
2013-08-24 16:58:00,74.6,42.8,29.64,North,359,0.0,32.0,32,0.00,,---,0.00,VWS V12.07,2013-08-24 23:58:00,
2013-08-24 16:59:00,74.4,42.7,29.64,North,359,0.0,32.0,32,0.00,,---,0.00,VWS V12.07,2013-08-24 23:59:00,
2013-08-24 17:00:00,74.4,42.7,29.64,North,359,0.0,32.0,32,0.00,,---,0.00,VWS V12.07,2013-08-25 00:00:00,
2013-08-24 17:01:00,74.4,42.7,29.64,North,359,0.0,32.0,32,0.00,,---,0.00,VWS V12.07,2013-08-25 00:01:00,
2013-08-24 17:03:00,74.4,42.7,29.64,North,359,0.0,32.0,32,0.00,,---,0.00,VWS V12.07,2013-08-25 00:03:00,
2013-08-24 17:04:00,74.4,42.7,29.64,North,359,0.0,32.0,32,0.00,,---,0.00,VWS V12.07,2013-08-25 00:04:00,
2013-08-24 17:05:00,74.4,42.7,29.64,North,359,0.0,32.0,32,0.00,,---,0.00,VWS V12.07,2013-08-25 00:05:00,
2013-08-24 17:06:00,74.2,43.3,29.64,North,359,0.0,32.0,33,0.00,,---,0.00,VWS V12.07,2013-08-25 00:06:00,
2013-08-24 17:08:00,74.0,43.1,29.64,North,359,0.0,32.0,33,0.00,,---,0.00,VWS V12.07,2013-08-25 00:08:00,
2013-08-24 17:10:00,73.9,43.8,29.64,West,275,0.0,32.0,34,0.00,,---,0.00,VWS V12.07,2013-08-25 00:10:00,
2013-08-24 17:11:00,73.7,44.4,29.64,NNE,32,0.0,32.0,35,0.00,,---,0.00,VWS V12.07,2013-08-25 00:11:00,
2013-08-24 17:13:00,73.0,45.2,29.64,NNW,347,4.0,32.0,37,0.00,,---,0.00,VWS V12.07,2013-08-25 00:13:00,
2013-08-24 17:15:00,72.7,45.0,29.66,NNE,14,0.0,32.0,37,0.00,,---,0.00,VWS V12.07,2013-08-25 00:15:00,
2013-08-24 17:16:00,72.5,44.8,29.66,NNW,328,0.0,32.0,37,0.00,,---,0.00,VWS V12.07,2013-08-25 00:16:00,
2013-08-24 17:18:00,72.0,45.0,29.66,North,0,5.0,32.0,38,0.00,,---,0.00,VWS V12.07,2013-08-25 00:18:00,
2013-08-24 17:20:00,71.6,45.4,29.66,NW,311,0.0,32.0,39,0.00,,---,0.00,VWS V12.07,2013-08-25 00:20:00,
2013-08-24 17:21:00,71.3,45.8,29.66,East,100,2.0,32.0,40,0.00,,---,0.00,VWS V12.07,2013-08-25 00:21:00,
2013-08-24 17:22:00,71.3,45.8,29.66,East,100,2.0,32.0,40,0.00,,---,0.00,VWS V12.07,2013-08-25 00:22:00,
2013-08-24 17:23:00,70.9,45.4,29.66,East,99,2.0,32.0,40,0.00,,---,0.00,VWS V12.07,2013-08-25 00:23:00,
2013-08-24 17:25:00,70.8,45.3,29.66,East,96,0.0,32.0,40,0.00,,---,0.00,VWS V12.07,2013-08-25 00:25:00,
2013-08-24 17:26:00,70.8,45.3,29.66,NNW,344,2.0,32.0,40,0.00,,---,0.00,VWS V12.07,2013-08-25 00:26:00,
2013-08-24 17:27:00,70.6,45.8,29.66,SSW,213,2.0,32.0,41,0.00,,---,0.00,VWS V12.07,2013-08-25 00:27:00,
2013-08-24 17:29:00,70.3,46.2,29.66,South,191,2.0,32.0,42,0.00,,---,0.00,VWS V12.07,2013-08-25 00:29:00,
2013-08-24 17:31:00,69.9,45.2,29.68,South,189,0.0,32.0,41,0.00,,---,0.00,VWS V12.07,2013-08-25 00:31:00,
2013-08-24 17:32:00,69.9,45.2,29.68,South,189,0.0,32.0,41,0.00,,---,0.00,VWS V12.07,2013-08-25 00:32:00,
2013-08-24 17:34:00,69.8,45.7,29.68,South,188,0.0,32.0,42,0.00,,---,0.00,VWS V12.07,2013-08-25 00:34:00,
2013-08-24 17:36:00,69.6,45.5,29.68,SSW,196,2.0,32.0,42,0.00,,---,0.00,VWS V12.07,2013-08-25 00:36:00,
2013-08-24 17:37:00,69.6,45.5,29.68,SSW,196,0.0,32.0,42,0.00,,---,0.00,VWS V12.07,2013-08-25 00:37:00,
2013-08-24 17:40:00,69.4,45.3,29.68,SSW,196,0.0,32.0,42,0.00,,---,0.00,VWS V12.07,2013-08-25 00:40:00,
2013-08-24 17:41:00,69.4,45.3,29.68,SSW,196,0.0,32.0,42,0.00,,---,0.00,VWS V12.07,2013-08-25 00:41:00,
2013-08-24 17:42:00,69.4,45.3,29.68,SSW,196,0.0,32.0,42,0.00,,---,0.00,VWS V12.07,2013-08-25 00:42:00,
2013-08-24 17:43:00,69.4,45.3,29.68,SSW,196,0.0,32.0,42,0.00,,---,0.00,VWS V12.07,2013-08-25 00:43:00,
2013-08-24 17:45:00,69.4,45.3,29.69,SSW,196,1.0,32.0,42,0.00,,---,0.00,VWS V12.07,2013-08-25 00:45:00,
2013-08-24 17:47:00,69.4,45.3,29.69,SSW,196,0.0,32.0,42,0.00,,---,0.00,VWS V12.07,2013-08-25 00:47:00,
2013-08-24 17:48:00,69.3,45.2,29.69,SSW,196,0.0,32.0,42,0.00,,---,0.00,VWS V12.07,2013-08-25 00:48:00,
2013-08-24 17:50:00,69.3,45.2,29.69,SSW,193,1.0,32.0,42,0.00,,---,0.00,VWS V12.07,2013-08-25 00:50:00,
2013-08-24 17:52:00,69.3,45.2,29.69,SSW,193,0.0,32.0,42,0.00,,---,0.00,VWS V12.07,2013-08-25 00:52:00,
2013-08-24 17:53:00,69.3,45.2,29.69,SSW,193,0.0,32.0,42,0.00,,---,0.00,VWS V12.07,2013-08-25 00:53:00,
2013-08-24 17:56:00,69.1,45.1,29.69,SSW,199,2.0,32.0,42,0.00,,---,0.00,VWS V12.07,2013-08-25 00:56:00,
2013-08-24 17:57:00,69.1,45.1,29.69,SSW,199,2.0,32.0,42,0.00,,---,0.00,VWS V12.07,2013-08-25 00:57:00,
2013-08-24 17:58:00,69.1,45.1,29.69,SSW,199,0.0,32.0,42,0.00,,---,0.00,VWS V12.07,2013-08-25 00:58:00,
2013-08-24 18:02:00,68.8,45.4,29.69,SSW,198,0.0,32.0,43,0.00,,---,0.00,VWS V12.07,2013-08-25 01:02:00,
2013-08-24 18:03:00,68.8,45.4,29.69,SSW,198,0.0,32.0,43,0.00,,---,0.00,VWS V12.07,2013-08-25 01:03:00,
2013-08-24 18:05:00,68.8,45.4,29.69,SSW,198,0.0,32.0,43,0.00,,---,0.00,VWS V12.07,2013-08-25 01:05:00,
2013-08-24 18:07:00,68.8,46.0,29.69,SSW,198,0.0,32.0,44,0.00,,---,0.00,VWS V12.07,2013-08-25 01:07:00,
2013-08-24 18:08:00,68.8,46.0,29.69,SSW,198,0.0,32.0,44,0.00,,---,0.00,VWS V12.07,2013-08-25 01:08:00,
2013-08-24 18:09:00,68.6,45.8,29.69,SSW,198,0.0,32.0,44,0.00,,---,0.00,VWS V12.07,2013-08-25 01:09:00,
2013-08-24 18:10:00,68.6,45.8,29.69,SSW,198,0.0,32.0,44,0.00,,---,0.00,VWS V12.07,2013-08-25 01:10:00,
2013-08-24 18:13:00,68.6,45.8,29.69,SSW,198,0.0,32.0,44,0.00,,---,0.00,VWS V12.07,2013-08-25 01:13:00,
2013-08-24 18:14:00,68.6,45.8,29.69,SSW,198,0.0,32.0,44,0.00,,---,0.00,VWS V12.07,2013-08-25 01:14:00,
2013-08-24 18:15:00,68.6,45.8,29.68,SSW,198,0.0,32.0,44,0.00,,---,0.00,VWS V12.07,2013-08-25 01:15:00,
2013-08-24 18:18:00,68.6,45.8,29.68,SSW,198,1.0,32.0,44,0.00,,---,0.00,VWS V12.07,2013-08-25 01:18:00,
2013-08-24 18:19:00,68.4,45.7,29.68,SSW,198,0.0,32.0,44,0.00,,---,0.00,VWS V12.07,2013-08-25 01:19:00,
2013-08-24 18:20:00,68.4,45.7,29.68,SSW,198,0.0,32.0,44,0.00,,---,0.00,VWS V12.07,2013-08-25 01:20:00,
2013-08-24 18:21:00,68.4,45.7,29.68,SSW,198,0.0,32.0,44,0.00,,---,0.00,VWS V12.07,2013-08-25 01:21:00,
2013-08-24 18:23:00,68.4,45.7,29.68,SSW,198,0.0,32.0,44,0.00,,---,0.00,VWS V12.07,2013-08-25 01:23:00,
2013-08-24 18:25:00,68.4,45.7,29.68,SSW,198,0.0,32.0,44,0.00,,---,0.00,VWS V12.07,2013-08-25 01:25:00,
2013-08-24 18:26:00,68.4,46.2,29.68,SSW,198,0.0,32.0,45,0.00,,---,0.00,VWS V12.07,2013-08-25 01:26:00,
2013-08-24 18:28:00,68.3,46.2,29.68,SSW,198,0.0,32.0,45,0.00,,---,0.00,VWS V12.07,2013-08-25 01:28:00,
2013-08-24 18:30:00,68.3,46.2,29.68,SSW,198,0.0,32.0,45,0.00,,---,0.00,VWS V12.07,2013-08-25 01:30:00,
2013-08-24 18:31:00,68.3,46.2,29.68,SSW,198,0.0,32.0,45,0.00,,---,0.00,VWS V12.07,2013-08-25 01:31:00,
2013-08-24 18:32:00,68.3,46.2,29.68,SSW,198,0.0,32.0,45,0.00,,---,0.00,VWS V12.07,2013-08-25 01:32:00,
2013-08-24 18:33:00,68.3,46.2,29.68,SSW,198,0.0,32.0,45,0.00,,---,0.00,VWS V12.07,2013-08-25 01:33:00,
2013-08-24 18:35:00,68.1,46.0,29.68,SSW,198,0.0,32.0,45,0.00,,---,0.00,VWS V12.07,2013-08-25 01:35:00,
2013-08-24 18:36:00,68.1,46.0,29.68,SSW,198,0.0,32.0,45,0.00,,---,0.00,VWS V12.07,2013-08-25 01:36:00,
2013-08-24 18:37:00,68.1,46.0,29.68,SSW,198,0.0,32.0,45,0.00,,---,0.00,VWS V12.07,2013-08-25 01:37:00,
2013-08-24 18:38:00,67.9,46.4,29.68,SSW,198,0.0,32.0,46,0.00,,---,0.00,VWS V12.07,2013-08-25 01:38:00,
2013-08-24 18:40:00,67.9,46.4,29.68,SSW,198,0.0,32.0,46,0.00,,---,0.00,VWS V12.07,2013-08-25 01:40:00,
2013-08-24 18:41:00,67.9,46.4,29.68,SSW,198,1.0,32.0,46,0.00,,---,0.00,VWS V12.07,2013-08-25 01:41:00,
2013-08-24 18:42:00,67.9,46.4,29.68,SSW,198,0.0,32.0,46,0.00,,---,0.00,VWS V12.07,2013-08-25 01:42:00,
2013-08-24 18:43:00,67.9,46.4,29.68,SSW,198,0.0,32.0,46,0.00,,---,0.00,VWS V12.07,2013-08-25 01:43:00,
2013-08-24 18:45:00,67.8,46.9,29.68,SSW,198,0.0,32.0,47,0.00,,---,0.00,VWS V12.07,2013-08-25 01:45:00,
2013-08-24 18:46:00,67.8,46.9,29.68,SSW,198,0.0,32.0,47,0.00,,---,0.00,VWS V12.07,2013-08-25 01:46:00,
2013-08-24 18:48:00,67.8,46.3,29.68,SSW,198,0.0,32.0,46,0.00,,---,0.00,VWS V12.07,2013-08-25 01:48:00,
2013-08-24 18:49:00,67.8,46.3,29.68,SSW,198,0.0,32.0,46,0.00,,---,0.00,VWS V12.07,2013-08-25 01:49:00,
2013-08-24 18:51:00,67.6,46.7,29.68,SSW,198,0.0,32.0,47,0.00,,---,0.00,VWS V12.07,2013-08-25 01:51:00,
2013-08-24 18:52:00,67.4,46.5,29.68,SSW,198,0.0,32.0,47,0.00,,---,0.00,VWS V12.07,2013-08-25 01:52:00,
2013-08-24 18:53:00,67.4,46.5,29.68,SSW,198,0.0,32.0,47,0.00,,---,0.00,VWS V12.07,2013-08-25 01:53:00,
2013-08-24 18:54:00,67.4,46.5,29.68,SSW,198,0.0,32.0,47,0.00,,---,0.00,VWS V12.07,2013-08-25 01:54:00,
2013-08-24 18:57:00,67.3,46.4,29.68,SSW,198,0.0,32.0,47,0.00,,---,0.00,VWS V12.07,2013-08-25 01:57:00,
2013-08-24 18:58:00,67.1,46.2,29.68,SSW,198,0.0,32.0,47,0.00,,---,0.00,VWS V12.07,2013-08-25 01:58:00,
2013-08-24 18:59:00,66.9,46.0,29.68,SSW,198,0.0,32.0,47,0.00,,---,0.00,VWS V12.07,2013-08-25 01:59:00,
2013-08-24 19:02:00,66.9,46.0,29.69,SSW,198,0.0,32.0,47,0.00,,---,0.00,VWS V12.07,2013-08-25 02:02:00,
2013-08-24 19:03:00,66.9,46.0,29.69,SSW,198,0.0,32.0,47,0.00,,---,0.00,VWS V12.07,2013-08-25 02:03:00,
2013-08-24 19:04:00,66.9,46.0,29.69,SSW,198,0.0,32.0,47,0.00,,---,0.00,VWS V12.07,2013-08-25 02:04:00,
2013-08-24 19:07:00,67.1,46.8,29.69,SSW,198,0.0,32.0,48,0.00,,---,0.00,VWS V12.07,2013-08-25 02:07:00,
2013-08-24 19:08:00,67.1,46.8,29.69,SSW,198,0.0,32.0,48,0.00,,---,0.00,VWS V12.07,2013-08-25 02:08:00,
2013-08-24 19:09:00,67.1,46.8,29.69,SSW,198,0.0,32.0,48,0.00,,---,0.00,VWS V12.07,2013-08-25 02:09:00,
2013-08-24 19:10:00,67.1,46.8,29.69,SSW,198,0.0,32.0,48,0.00,,---,0.00,VWS V12.07,2013-08-25 02:10:00,
2013-08-24 19:12:00,67.1,46.8,29.69,SSW,198,0.0,32.0,48,0.00,,---,0.00,VWS V12.07,2013-08-25 02:12:00,
2013-08-24 19:13:00,67.3,47.0,29.69,SSW,198,0.0,32.0,48,0.00,,---,0.00,VWS V12.07,2013-08-25 02:13:00,
2013-08-24 19:14:00,67.3,47.0,29.67,SSW,198,0.0,32.0,48,0.00,,---,0.00,VWS V12.07,2013-08-25 02:14:00,
2013-08-24 19:15:00,67.3,46.4,29.67,SSW,198,0.0,32.0,47,0.00,,---,0.00,VWS V12.07,2013-08-25 02:15:00,
2013-08-24 19:18:00,67.1,46.2,29.67,SSW,198,0.0,32.0,47,0.00,,---,0.00,VWS V12.07,2013-08-25 02:18:00,
2013-08-24 19:19:00,67.1,46.8,29.67,SSW,198,0.0,32.0,48,0.00,,---,0.00,VWS V12.07,2013-08-25 02:19:00,
2013-08-24 19:20:00,66.9,46.6,29.67,SSW,198,0.0,32.0,48,0.00,,---,0.00,VWS V12.07,2013-08-25 02:20:00,
2013-08-24 19:23:00,66.9,46.6,29.67,SSW,198,0.0,32.0,48,0.00,,---,0.00,VWS V12.07,2013-08-25 02:23:00,
2013-08-24 19:24:00,66.8,46.5,29.67,SSW,198,0.0,32.0,48,0.00,,---,0.00,VWS V12.07,2013-08-25 02:24:00,
2013-08-24 19:25:00,66.8,46.5,29.67,SSW,198,0.0,32.0,48,0.00,,---,0.00,VWS V12.07,2013-08-25 02:25:00,
2013-08-24 19:26:00,66.8,46.5,29.67,SSW,198,0.0,32.0,48,0.00,,---,0.00,VWS V12.07,2013-08-25 02:26:00,
2013-08-24 19:28:00,66.8,46.5,29.67,SSW,198,0.0,32.0,48,0.00,,---,0.00,VWS V12.07,2013-08-25 02:28:00,
2013-08-24 19:30:00,66.8,46.5,29.69,SSW,198,0.0,32.0,48,0.00,,---,0.00,VWS V12.07,2013-08-25 02:30:00,
2013-08-24 19:31:00,66.8,46.5,29.69,SSW,198,0.0,32.0,48,0.00,,---,0.00,VWS V12.07,2013-08-25 02:31:00,
2013-08-24 19:33:00,66.8,46.5,29.69,SSW,198,0.0,32.0,48,0.00,,---,0.00,VWS V12.07,2013-08-25 02:33:00,
2013-08-24 19:35:00,66.6,46.3,29.69,SSW,198,0.0,32.0,48,0.00,,---,0.00,VWS V12.07,2013-08-25 02:35:00,
2013-08-24 19:36:00,66.6,46.3,29.69,SSW,198,0.0,32.0,48,0.00,,---,0.00,VWS V12.07,2013-08-25 02:36:00,
2013-08-24 19:38:00,66.4,46.7,29.69,SSW,196,0.0,32.0,49,0.00,,---,0.00,VWS V12.07,2013-08-25 02:38:00,
2013-08-24 19:40:00,66.3,46.6,29.69,SSW,196,0.0,32.0,49,0.00,,---,0.00,VWS V12.07,2013-08-25 02:40:00,
2013-08-24 19:41:00,66.3,46.6,29.69,SSW,196,0.0,32.0,49,0.00,,---,0.00,VWS V12.07,2013-08-25 02:41:00,
2013-08-24 19:42:00,66.3,46.6,29.69,SSW,196,0.0,32.0,49,0.00,,---,0.00,VWS V12.07,2013-08-25 02:42:00,
2013-08-24 19:44:00,66.3,46.6,29.69,SSW,196,0.0,32.0,49,0.00,,---,0.00,VWS V12.07,2013-08-25 02:44:00,
2013-08-24 19:46:00,66.1,46.4,29.70,SSW,196,0.0,32.0,49,0.00,,---,0.00,VWS V12.07,2013-08-25 02:46:00,
2013-08-24 19:47:00,66.1,46.4,29.70,SSW,196,0.0,32.0,49,0.00,,---,0.00,VWS V12.07,2013-08-25 02:47:00,
2013-08-24 19:49:00,66.1,46.4,29.70,SSW,196,0.0,32.0,49,0.00,,---,0.00,VWS V12.07,2013-08-25 02:49:00,
2013-08-24 19:51:00,66.0,46.3,29.70,SSW,196,0.0,32.0,49,0.00,,---,0.00,VWS V12.07,2013-08-25 02:51:00,
2013-08-24 19:52:00,66.0,46.8,29.70,SSW,196,0.0,32.0,50,0.00,,---,0.00,VWS V12.07,2013-08-25 02:52:00,
2013-08-24 19:54:00,66.0,46.3,29.70,SSW,196,0.0,32.0,49,0.00,,---,0.00,VWS V12.07,2013-08-25 02:54:00,
2013-08-24 19:56:00,65.8,46.7,29.70,SSW,196,2.0,32.0,50,0.00,,---,0.00,VWS V12.07,2013-08-25 02:56:00,
2013-08-24 19:57:00,65.8,46.7,29.70,SSW,196,0.0,32.0,50,0.00,,---,0.00,VWS V12.07,2013-08-25 02:57:00,
2013-08-24 19:58:00,65.8,46.7,29.70,SSW,196,0.0,32.0,50,0.00,,---,0.00,VWS V12.07,2013-08-25 02:58:00,
2013-08-24 20:00:00,65.6,46.5,29.71,SSW,198,0.0,32.0,50,0.00,,---,0.00,VWS V12.07,2013-08-25 03:00:00,
2013-08-24 20:02:00,65.6,46.5,29.71,SSW,198,2.0,32.0,50,0.00,,---,0.00,VWS V12.07,2013-08-25 03:02:00,
2013-08-24 20:03:00,65.6,47.0,29.71,SSW,198,0.0,32.0,51,0.00,,---,0.00,VWS V12.07,2013-08-25 03:03:00,
2013-08-24 20:05:00,65.5,46.9,29.71,SSW,198,0.0,32.0,51,0.00,,---,0.00,VWS V12.07,2013-08-25 03:05:00,
2013-08-24 20:07:00,65.5,46.9,29.71,SSW,198,2.0,32.0,51,0.00,,---,0.00,VWS V12.07,2013-08-25 03:07:00,
2013-08-24 20:08:00,65.5,46.9,29.71,SSW,198,0.0,32.0,51,0.00,,---,0.00,VWS V12.07,2013-08-25 03:08:00,
2013-08-24 20:11:00,65.3,47.2,29.71,SSW,199,0.0,32.0,52,0.00,,---,0.00,VWS V12.07,2013-08-25 03:11:00,
2013-08-24 20:13:00,65.2,47.2,29.71,SSW,199,0.0,32.0,52,0.00,,---,0.00,VWS V12.07,2013-08-25 03:13:00,
2013-08-24 20:16:00,65.0,47.0,29.69,SSW,199,0.0,32.0,52,0.00,,---,0.00,VWS V12.07,2013-08-25 03:16:00,
2013-08-24 20:18:00,64.8,47.3,29.69,SSW,199,0.0,32.0,53,0.00,,---,0.00,VWS V12.07,2013-08-25 03:18:00,
2013-08-24 20:19:00,64.8,47.3,29.69,SSW,199,0.0,32.0,53,0.00,,---,0.00,VWS V12.07,2013-08-25 03:19:00,
2013-08-24 20:21:00,64.7,47.7,29.69,SSW,206,0.0,32.0,54,0.00,,---,0.00,VWS V12.07,2013-08-25 03:21:00,
2013-08-24 20:23:00,64.5,48.5,29.69,SSW,208,0.0,32.0,56,0.00,,---,0.00,VWS V12.07,2013-08-25 03:23:00,
2013-08-24 20:24:00,64.5,48.5,29.69,SSW,208,0.0,32.0,56,0.00,,---,0.00,VWS V12.07,2013-08-25 03:24:00,
2013-08-24 20:27:00,64.0,48.0,29.69,SSW,209,2.0,32.0,56,0.00,,---,0.00,VWS V12.07,2013-08-25 03:27:00,
2013-08-24 20:28:00,63.9,47.9,29.69,SSW,209,0.0,32.0,56,0.00,,---,0.00,VWS V12.07,2013-08-25 03:28:00,
2013-08-24 20:29:00,63.7,47.7,29.69,SSW,209,0.0,32.0,56,0.00,,---,0.00,VWS V12.07,2013-08-25 03:29:00,
2013-08-24 20:30:00,63.7,48.2,29.69,SSW,209,0.0,32.0,57,0.00,,---,0.00,VWS V12.07,2013-08-25 03:30:00,
2013-08-24 20:32:00,63.4,47.9,29.69,SSW,209,0.0,32.0,57,0.00,,---,0.00,VWS V12.07,2013-08-25 03:32:00,
2013-08-24 20:33:00,63.4,48.4,29.69,SSW,209,0.0,32.0,58,0.00,,---,0.00,VWS V12.07,2013-08-25 03:33:00,
2013-08-24 20:34:00,63.1,48.1,29.69,SSW,209,0.0,32.0,58,0.00,,---,0.00,VWS V12.07,2013-08-25 03:34:00,
2013-08-24 20:35:00,62.9,48.4,29.69,SSW,209,0.0,32.0,59,0.00,,---,0.00,VWS V12.07,2013-08-25 03:35:00,
2013-08-24 20:37:00,62.4,47.9,29.69,SSW,208,0.0,32.0,59,0.00,,---,0.00,VWS V12.07,2013-08-25 03:37:00,
2013-08-24 20:38:00,62.4,47.9,29.69,SSW,208,0.0,32.0,59,0.00,,---,0.00,VWS V12.07,2013-08-25 03:38:00,
2013-08-24 20:39:00,62.3,47.8,29.69,SSW,208,0.0,32.0,59,0.00,,---,0.00,VWS V12.07,2013-08-25 03:39:00,
2013-08-24 20:40:00,62.3,47.8,29.69,SSW,208,0.0,32.0,59,0.00,,---,0.00,VWS V12.07,2013-08-25 03:40:00,
2013-08-24 20:43:00,62.1,48.1,29.69,SSW,208,0.0,32.0,60,0.00,,---,0.00,VWS V12.07,2013-08-25 03:43:00,
2013-08-24 20:44:00,62.0,48.4,29.71,SSW,208,0.0,32.0,61,0.00,,---,0.00,VWS V12.07,2013-08-25 03:44:00,
2013-08-24 20:45:00,62.0,48.4,29.71,SSW,208,0.0,32.0,61,0.00,,---,0.00,VWS V12.07,2013-08-25 03:45:00,
2013-08-24 20:49:00,61.5,48.4,29.71,SSW,208,0.0,32.0,62,0.00,,---,0.00,VWS V12.07,2013-08-25 03:49:00,
2013-08-24 20:50:00,61.3,48.2,29.71,SSW,208,0.0,32.0,62,0.00,,---,0.00,VWS V12.07,2013-08-25 03:50:00,
2013-08-24 20:54:00,61.0,48.3,29.71,SSW,208,0.0,32.0,63,0.00,,---,0.00,VWS V12.07,2013-08-25 03:54:00,
2013-08-24 20:55:00,61.0,48.3,29.71,SSW,208,0.0,32.0,63,0.00,,---,0.00,VWS V12.07,2013-08-25 03:55:00,
2013-08-24 20:56:00,61.0,48.8,29.71,SSW,208,0.0,32.0,64,0.00,,---,0.00,VWS V12.07,2013-08-25 03:56:00,
2013-08-24 20:59:00,60.7,48.5,29.71,SSW,208,0.0,32.0,64,0.00,,---,0.00,VWS V12.07,2013-08-25 03:59:00,
2013-08-24 21:00:00,60.7,48.5,29.71,SSW,208,0.0,32.0,64,0.00,,---,0.00,VWS V12.07,2013-08-25 04:00:00,
2013-08-24 21:01:00,60.5,48.3,29.71,SSW,208,0.0,32.0,64,0.00,,---,0.00,VWS V12.07,2013-08-25 04:01:00,
2013-08-24 21:02:00,60.5,48.3,29.71,SSW,208,0.0,32.0,64,0.00,,---,0.00,VWS V12.07,2013-08-25 04:02:00,
2013-08-24 21:06:00,60.2,48.0,29.71,SSW,208,0.0,32.0,64,0.00,,---,0.00,VWS V12.07,2013-08-25 04:06:00,
2013-08-24 21:07:00,60.2,48.0,29.71,SSW,208,0.0,32.0,64,0.00,,---,0.00,VWS V12.07,2013-08-25 04:07:00,
2013-08-24 21:11:00,60.1,48.7,29.71,SSW,208,0.0,32.0,66,0.00,,---,0.00,VWS V12.07,2013-08-25 04:11:00,
2013-08-24 21:12:00,60.1,48.7,29.71,SSW,208,0.0,32.0,66,0.00,,---,0.00,VWS V12.07,2013-08-25 04:12:00,
2013-08-24 21:13:00,60.1,49.1,29.71,SSW,208,0.0,32.0,67,0.00,,---,0.00,VWS V12.07,2013-08-25 04:13:00,
2013-08-24 21:16:00,59.9,48.9,29.69,SSW,208,0.0,32.0,67,0.00,,---,0.00,VWS V12.07,2013-08-25 04:16:00,
2013-08-24 21:17:00,59.9,48.9,29.69,SSW,208,0.0,32.0,67,0.00,,---,0.00,VWS V12.07,2013-08-25 04:17:00,
2013-08-24 21:18:00,59.9,48.9,29.69,SSW,208,0.0,32.0,67,0.00,,---,0.00,VWS V12.07,2013-08-25 04:18:00,
2013-08-24 21:21:00,59.8,48.8,29.69,SSW,208,0.0,32.0,67,0.00,,---,0.00,VWS V12.07,2013-08-25 04:21:00,
2013-08-24 21:22:00,59.6,48.6,29.69,SSW,208,0.0,32.0,67,0.00,,---,0.00,VWS V12.07,2013-08-25 04:22:00,
2013-08-24 21:23:00,59.6,48.6,29.69,SSW,208,0.0,32.0,67,0.00,,---,0.00,VWS V12.07,2013-08-25 04:23:00,
2013-08-24 21:26:00,59.6,48.6,29.69,SSW,208,0.0,32.0,67,0.00,,---,0.00,VWS V12.07,2013-08-25 04:26:00,
2013-08-24 21:28:00,59.5,48.5,29.69,SSW,208,0.0,32.0,67,0.00,,---,0.00,VWS V12.07,2013-08-25 04:28:00,
2013-08-24 21:29:00,59.5,48.9,29.70,SSW,208,0.0,32.0,68,0.00,,---,0.00,VWS V12.07,2013-08-25 04:29:00,
2013-08-24 21:32:00,59.3,48.8,29.70,SSW,208,0.0,32.0,68,0.00,,---,0.00,VWS V12.07,2013-08-25 04:32:00,
2013-08-24 21:33:00,59.3,48.8,29.70,SSW,208,0.0,32.0,68,0.00,,---,0.00,VWS V12.07,2013-08-25 04:33:00,
2013-08-24 21:35:00,59.2,48.7,29.70,SSW,208,0.0,32.0,68,0.00,,---,0.00,VWS V12.07,2013-08-25 04:35:00,
2013-08-24 21:37:00,59.0,48.5,29.70,SSW,208,0.0,32.0,68,0.00,,---,0.00,VWS V12.07,2013-08-25 04:37:00,
2013-08-24 21:38:00,59.0,48.5,29.70,SSW,208,0.0,32.0,68,0.00,,---,0.00,VWS V12.07,2013-08-25 04:38:00,
2013-08-24 21:39:00,59.0,48.5,29.70,SSW,208,0.0,32.0,68,0.00,,---,0.00,VWS V12.07,2013-08-25 04:39:00,
2013-08-24 21:40:00,58.9,48.8,29.70,SSW,208,0.0,32.0,69,0.00,,---,0.00,VWS V12.07,2013-08-25 04:40:00,
2013-08-24 21:42:00,58.9,48.8,29.70,SSW,208,0.0,32.0,69,0.00,,---,0.00,VWS V12.07,2013-08-25 04:42:00,
2013-08-24 21:44:00,58.9,48.8,29.70,SSW,208,0.0,32.0,69,0.00,,---,0.00,VWS V12.07,2013-08-25 04:44:00,
2013-08-24 21:45:00,58.7,48.6,29.71,SSW,208,0.0,32.0,69,0.00,,---,0.00,VWS V12.07,2013-08-25 04:45:00,
2013-08-24 21:46:00,58.7,48.6,29.71,SSW,208,0.0,32.0,69,0.00,,---,0.00,VWS V12.07,2013-08-25 04:46:00,
2013-08-24 21:47:00,58.7,48.6,29.71,SSW,208,0.0,32.0,69,0.00,,---,0.00,VWS V12.07,2013-08-25 04:47:00,
2013-08-24 21:49:00,58.6,48.5,29.71,SSW,208,0.0,32.0,69,0.00,,---,0.00,VWS V12.07,2013-08-25 04:49:00,
2013-08-24 21:50:00,58.6,48.5,29.71,SSW,208,0.0,32.0,69,0.00,,---,0.00,VWS V12.07,2013-08-25 04:50:00,
2013-08-24 21:51:00,58.6,48.5,29.71,SSW,208,0.0,32.0,69,0.00,,---,0.00,VWS V12.07,2013-08-25 04:51:00,
2013-08-24 21:53:00,58.6,48.5,29.71,SSW,208,0.0,32.0,69,0.00,,---,0.00,VWS V12.07,2013-08-25 04:53:00,
2013-08-24 21:54:00,58.4,48.3,29.71,SSW,208,0.0,32.0,69,0.00,,---,0.00,VWS V12.07,2013-08-25 04:54:00,
2013-08-24 21:55:00,58.4,48.3,29.71,SSW,208,0.0,32.0,69,0.00,,---,0.00,VWS V12.07,2013-08-25 04:55:00,
2013-08-24 21:56:00,58.4,48.3,29.71,SSW,208,0.0,32.0,69,0.00,,---,0.00,VWS V12.07,2013-08-25 04:56:00,
2013-08-24 21:58:00,58.3,48.2,29.71,SSW,208,0.0,32.0,69,0.00,,---,0.00,VWS V12.07,2013-08-25 04:58:00,
2013-08-24 21:59:00,58.3,48.2,29.71,SSW,208,0.0,32.0,69,0.00,,---,0.00,VWS V12.07,2013-08-25 04:59:00,
2013-08-24 22:00:00,58.3,47.8,29.71,SSW,208,0.0,32.0,68,0.00,,---,0.00,VWS V12.07,2013-08-25 05:00:00,
2013-08-24 22:01:00,58.3,48.2,29.71,SSW,208,0.0,32.0,69,0.00,,---,0.00,VWS V12.07,2013-08-25 05:01:00,
2013-08-24 22:03:00,58.3,48.2,29.71,SSW,208,0.0,32.0,69,0.00,,---,0.00,VWS V12.07,2013-08-25 05:03:00,
2013-08-24 22:05:00,58.3,48.2,29.71,SSW,208,0.0,32.0,69,0.00,,---,0.00,VWS V12.07,2013-08-25 05:05:00,
2013-08-24 22:07:00,58.3,48.6,29.71,SSW,208,0.0,32.0,70,0.00,,---,0.00,VWS V12.07,2013-08-25 05:07:00,
2013-08-24 22:08:00,58.3,48.6,29.71,SSW,208,0.0,32.0,70,0.00,,---,0.00,VWS V12.07,2013-08-25 05:08:00,
2013-08-24 22:10:00,58.1,48.0,29.71,SSW,208,0.0,32.0,69,0.00,,---,0.00,VWS V12.07,2013-08-25 05:10:00,
2013-08-24 22:13:00,58.0,47.9,29.71,SSW,208,0.0,32.0,69,0.00,,---,0.00,VWS V12.07,2013-08-25 05:13:00,
2013-08-24 22:14:00,58.0,47.9,29.71,SSW,208,0.0,32.0,69,0.00,,---,0.00,VWS V12.07,2013-08-25 05:14:00,
2013-08-24 22:15:00,57.8,47.7,29.70,SSW,208,0.0,32.0,69,0.00,,---,0.00,VWS V12.07,2013-08-25 05:15:00,
2013-08-24 22:18:00,57.8,47.7,29.70,SSW,208,0.0,32.0,69,0.00,,---,0.00,VWS V12.07,2013-08-25 05:18:00,
2013-08-24 22:19:00,57.6,47.5,29.70,SSW,208,0.0,32.0,69,0.00,,---,0.00,VWS V12.07,2013-08-25 05:19:00,
2013-08-24 22:20:00,57.6,47.5,29.70,SSW,208,0.0,32.0,69,0.00,,---,0.00,VWS V12.07,2013-08-25 05:20:00,
2013-08-24 22:21:00,57.6,47.5,29.70,SSW,208,0.0,32.0,69,0.00,,---,0.00,VWS V12.07,2013-08-25 05:21:00,
2013-08-24 22:23:00,57.6,47.5,29.70,SSW,208,0.0,32.0,69,0.00,,---,0.00,VWS V12.07,2013-08-25 05:23:00,
2013-08-24 22:24:00,57.6,47.5,29.70,SSW,208,0.0,32.0,69,0.00,,---,0.00,VWS V12.07,2013-08-25 05:24:00,
2013-08-24 22:26:00,57.5,47.4,29.70,SSW,208,0.0,32.0,69,0.00,,---,0.00,VWS V12.07,2013-08-25 05:26:00,
2013-08-24 22:28:00,57.3,47.2,29.70,SSW,208,0.0,32.0,69,0.00,,---,0.00,VWS V12.07,2013-08-25 05:28:00,
2013-08-24 22:29:00,57.3,47.2,29.70,SSW,208,0.0,32.0,69,0.00,,---,0.00,VWS V12.07,2013-08-25 05:29:00,
2013-08-24 22:31:00,57.2,47.1,29.71,SSW,208,0.0,32.0,69,0.00,,---,0.00,VWS V12.07,2013-08-25 05:31:00,
2013-08-24 22:33:00,57.2,47.1,29.71,SSW,208,0.0,32.0,69,0.00,,---,0.00,VWS V12.07,2013-08-25 05:33:00,
2013-08-24 22:34:00,57.2,47.1,29.71,SSW,208,0.0,32.0,69,0.00,,---,0.00,VWS V12.07,2013-08-25 05:34:00,
2013-08-24 22:35:00,57.0,46.9,29.71,SSW,208,0.0,32.0,69,0.00,,---,0.00,VWS V12.07,2013-08-25 05:35:00,
2013-08-24 22:37:00,57.0,46.9,29.71,SSW,208,0.0,32.0,69,0.00,,---,0.00,VWS V12.07,2013-08-25 05:37:00,
2013-08-24 22:38:00,57.0,46.9,29.71,SSW,208,0.0,32.0,69,0.00,,---,0.00,VWS V12.07,2013-08-25 05:38:00,
2013-08-24 22:39:00,57.0,47.3,29.71,SSW,208,0.0,32.0,70,0.00,,---,0.00,VWS V12.07,2013-08-25 05:39:00,
2013-08-24 22:41:00,56.9,47.2,29.71,SSW,208,0.0,32.0,70,0.00,,---,0.00,VWS V12.07,2013-08-25 05:41:00,
2013-08-24 22:42:00,56.9,47.6,29.71,SSW,208,0.0,32.0,71,0.00,,---,0.00,VWS V12.07,2013-08-25 05:42:00,
2013-08-24 22:43:00,56.7,47.0,29.71,SSW,208,0.0,32.0,70,0.00,,---,0.00,VWS V12.07,2013-08-25 05:43:00,
2013-08-24 22:45:00,56.6,47.3,29.72,SSW,208,0.0,32.0,71,0.00,,---,0.00,VWS V12.07,2013-08-25 05:45:00,
2013-08-24 22:46:00,56.5,47.6,29.72,SSW,208,0.0,32.0,72,0.00,,---,0.00,VWS V12.07,2013-08-25 05:46:00,
2013-08-24 22:47:00,56.3,47.4,29.72,SSW,208,0.0,32.0,72,0.00,,---,0.00,VWS V12.07,2013-08-25 05:47:00,
2013-08-24 22:48:00,56.3,47.4,29.72,SSW,208,0.0,32.0,72,0.00,,---,0.00,VWS V12.07,2013-08-25 05:48:00,
2013-08-24 22:50:00,56.3,47.4,29.72,SSW,208,0.0,32.0,72,0.00,,---,0.00,VWS V12.07,2013-08-25 05:50:00,
2013-08-24 22:51:00,56.2,46.9,29.72,SSW,208,0.0,32.0,71,0.00,,---,0.00,VWS V12.07,2013-08-25 05:51:00,
2013-08-24 22:52:00,56.2,46.9,29.72,SSW,208,0.0,32.0,71,0.00,,---,0.00,VWS V12.07,2013-08-25 05:52:00,
2013-08-24 22:53:00,56.2,46.9,29.72,SSW,208,0.0,32.0,71,0.00,,---,0.00,VWS V12.07,2013-08-25 05:53:00,
2013-08-24 22:54:00,56.0,46.7,29.72,SSW,208,0.0,32.0,71,0.00,,---,0.00,VWS V12.07,2013-08-25 05:54:00,
2013-08-24 22:55:00,56.0,46.7,29.72,SSW,208,0.0,32.0,71,0.00,,---,0.00,VWS V12.07,2013-08-25 05:55:00,
2013-08-24 22:56:00,55.9,46.7,29.72,SSW,208,0.0,32.0,71,0.00,,---,0.00,VWS V12.07,2013-08-25 05:56:00,
2013-08-24 22:58:00,55.9,46.7,29.72,SSW,208,0.0,32.0,71,0.00,,---,0.00,VWS V12.07,2013-08-25 05:58:00,
2013-08-24 22:59:00,55.9,47.0,29.72,SSW,208,0.0,32.0,72,0.00,,---,0.00,VWS V12.07,2013-08-25 05:59:00,
2013-08-24 23:01:00,55.7,46.5,29.72,SSW,208,0.0,32.0,71,0.00,,---,0.00,VWS V12.07,2013-08-25 06:01:00,
2013-08-24 23:02:00,55.7,46.5,29.72,SSW,208,0.0,32.0,71,0.00,,---,0.00,VWS V12.07,2013-08-25 06:02:00,
2013-08-24 23:03:00,55.7,46.5,29.72,SSW,208,0.0,32.0,71,0.00,,---,0.00,VWS V12.07,2013-08-25 06:03:00,
2013-08-24 23:04:00,55.7,46.5,29.72,SSW,208,0.0,32.0,71,0.00,,---,0.00,VWS V12.07,2013-08-25 06:04:00,
2013-08-24 23:07:00,55.7,46.5,29.72,SSW,208,0.0,32.0,71,0.00,,---,0.00,VWS V12.07,2013-08-25 06:07:00,
2013-08-24 23:08:00,55.7,46.5,29.72,SSW,208,0.0,32.0,71,0.00,,---,0.00,VWS V12.07,2013-08-25 06:08:00,
2013-08-24 23:09:00,55.7,46.5,29.72,SSW,208,0.0,32.0,71,0.00,,---,0.00,VWS V12.07,2013-08-25 06:09:00,
2013-08-24 23:12:00,55.6,46.4,29.72,SSW,208,0.0,32.0,71,0.00,,---,0.00,VWS V12.07,2013-08-25 06:12:00,
2013-08-24 23:13:00,55.6,46.4,29.72,SSW,208,0.0,32.0,71,0.00,,---,0.00,VWS V12.07,2013-08-25 06:13:00,
2013-08-24 23:14:00,55.6,46.0,29.70,SSW,208,0.0,32.0,70,0.00,,---,0.00,VWS V12.07,2013-08-25 06:14:00,
2013-08-24 23:17:00,55.4,45.8,29.70,SSW,208,0.0,32.0,70,0.00,,---,0.00,VWS V12.07,2013-08-25 06:17:00,
2013-08-24 23:18:00,55.4,45.8,29.70,SSW,208,0.0,32.0,70,0.00,,---,0.00,VWS V12.07,2013-08-25 06:18:00,
2013-08-24 23:19:00,55.3,46.1,29.70,SSW,208,0.0,32.0,71,0.00,,---,0.00,VWS V12.07,2013-08-25 06:19:00,
2013-08-24 23:20:00,55.3,46.1,29.70,SSW,208,0.0,32.0,71,0.00,,---,0.00,VWS V12.07,2013-08-25 06:20:00,
2013-08-24 23:23:00,55.3,46.1,29.70,SSW,208,0.0,32.0,71,0.00,,---,0.00,VWS V12.07,2013-08-25 06:23:00,
2013-08-24 23:24:00,55.1,45.9,29.70,SSW,208,0.0,32.0,71,0.00,,---,0.00,VWS V12.07,2013-08-25 06:24:00,
2013-08-24 23:25:00,55.1,45.9,29.70,SSW,208,0.0,32.0,71,0.00,,---,0.00,VWS V12.07,2013-08-25 06:25:00,
2013-08-24 23:28:00,55.0,46.2,29.70,SSW,208,0.0,32.0,72,0.00,,---,0.00,VWS V12.07,2013-08-25 06:28:00,
2013-08-24 23:30:00,54.8,46.0,29.70,SSW,208,0.0,32.0,72,0.00,,---,0.00,VWS V12.07,2013-08-25 06:30:00,
2013-08-24 23:33:00,54.7,45.9,29.70,SSW,208,0.0,32.0,72,0.00,,---,0.00,VWS V12.07,2013-08-25 06:33:00,
2013-08-24 23:34:00,54.7,45.9,29.70,SSW,208,0.0,32.0,72,0.00,,---,0.00,VWS V12.07,2013-08-25 06:34:00,
2013-08-24 23:35:00,54.7,45.9,29.70,SSW,208,0.0,32.0,72,0.00,,---,0.00,VWS V12.07,2013-08-25 06:35:00,
2013-08-24 23:36:00,54.7,45.9,29.70,SSW,208,0.0,32.0,72,0.00,,---,0.00,VWS V12.07,2013-08-25 06:36:00,
2013-08-24 23:39:00,54.5,46.0,29.70,SSW,208,0.0,32.0,73,0.00,,---,0.00,VWS V12.07,2013-08-25 06:39:00,
2013-08-24 23:40:00,54.5,46.0,29.70,SSW,208,0.0,32.0,73,0.00,,---,0.00,VWS V12.07,2013-08-25 06:40:00,
2013-08-24 23:41:00,54.5,46.0,29.70,SSW,208,0.0,32.0,73,0.00,,---,0.00,VWS V12.07,2013-08-25 06:41:00,
2013-08-24 23:44:00,54.4,45.6,29.70,SSW,208,0.0,32.0,72,0.00,,---,0.00,VWS V12.07,2013-08-25 06:44:00,
2013-08-24 23:45:00,54.4,45.6,29.70,SSW,208,0.0,32.0,72,0.00,,---,0.00,VWS V12.07,2013-08-25 06:45:00,
2013-08-24 23:46:00,54.2,45.8,29.70,SSW,208,0.0,32.0,73,0.00,,---,0.00,VWS V12.07,2013-08-25 06:46:00,
2013-08-24 23:47:00,54.2,45.8,29.70,SSW,208,0.0,32.0,73,0.00,,---,0.00,VWS V12.07,2013-08-25 06:47:00,
2013-08-24 23:49:00,54.1,45.3,29.70,SSW,208,0.0,32.0,72,0.00,,---,0.00,VWS V12.07,2013-08-25 06:49:00,
2013-08-24 23:50:00,54.1,45.3,29.70,SSW,208,0.0,32.0,72,0.00,,---,0.00,VWS V12.07,2013-08-25 06:50:00,
2013-08-24 23:51:00,54.1,45.3,29.70,SSW,208,0.0,32.0,72,0.00,,---,0.00,VWS V12.07,2013-08-25 06:51:00,
2013-08-24 23:52:00,54.1,45.3,29.70,SSW,208,0.0,32.0,72,0.00,,---,0.00,VWS V12.07,2013-08-25 06:52:00,
2013-08-24 23:54:00,53.9,45.1,29.70,SSW,208,0.0,32.0,72,0.00,,---,0.00,VWS V12.07,2013-08-25 06:54:00,
2013-08-24 23:55:00,53.9,45.1,29.70,SSW,208,0.0,32.0,72,0.00,,---,0.00,VWS V12.07,2013-08-25 06:55:00,
2013-08-24 23:56:00,53.9,45.1,29.70,SSW,208,0.0,32.0,72,0.00,,---,0.00,VWS V12.07,2013-08-25 06:56:00,
2013-08-24 23:57:00,53.8,45.0,29.70,SSW,208,0.0,32.0,72,0.00,,---,0.00,VWS V12.07,2013-08-25 06:57:00,